DB0MGN-WX Weather Reports


time (UTC)temp
C
wind
direction
speed
KPH
gust
KPH
rain 1hr
cm
rain 24hr
cm
rain mn
cm
humidity
%
barometer
mb
20260508102959 12 245 3.2 0.0 0.00 0.00 0.00 57 1018.2
20260508102859 12 53 1.6 0.0 0.00 0.00 0.00 57 1018.2
20260508102759 12 26 4.8 0.0 0.00 0.00 0.00 56 1018.3
20260508102659 12 31 3.2 0.0 0.00 0.00 0.00 55 1018.2
20260508102559 12 315 3.2 0.0 0.00 0.00 0.00 55 1018.2
20260508102459 12 318 3.2 0.0 0.00 0.00 0.00 55 1018.2
20260508102359 12 263 1.6 0.0 0.00 0.00 0.00 55 1018.2
20260508102259 12 302 3.2 0.0 0.00 0.00 0.00 56 1018.3
20260508102159 12 252 3.2 0.0 0.00 0.00 0.00 56 1018.2
20260508102059 12 285 1.6 0.0 0.00 0.00 0.00 55 1018.2
20260508101959 12 261 3.2 0.0 0.00 0.00 0.00 56 1018.3
20260508101858 12 256 4.8 0.0 0.00 0.00 0.00 59 1018.3
20260508101758 12 38 0.0 0.0 0.00 0.00 0.00 60 1018.2
20260508101658 12 117 0.0 0.0 0.00 0.00 0.00 59 1018.2
20260508101558 12 65 1.6 0.0 0.00 0.00 0.00 59 1018.2
20260508101458 12 80 1.6 0.0 0.00 0.00 0.00 60 1018.2
20260508101358 12 57 0.0 0.0 0.00 0.00 0.00 60 1018.1
20260508101258 12 44 1.6 0.0 0.00 0.00 0.00 60 1018.3
20260508101158 12 80 1.6 0.0 0.00 0.00 0.00 59 1018.2
20260508101058 12 65 1.6 0.0 0.00 0.00 0.00 59 1018.3
20260508100958 12 52 3.2 0.0 0.00 0.00 0.00 59 1018.3
20260508100858 12 338 3.2 0.0 0.00 0.00 0.00 60 1018.4
20260508100758 12 308 1.6 0.0 0.00 0.00 0.00 61 1018.2
20260508100658 12 108 0.0 0.0 0.00 0.00 0.00 60 1018.3
20260508100558 12 259 1.6 0.0 0.00 0.00 0.00 59 1018.2
20260508100458 12 265 4.8 0.0 0.00 0.00 0.00 59 1018.2
20260508100358 13 282 4.8 0.0 0.00 0.00 0.00 58 1018.3
20260508100257 13 257 11.3 0.0 0.00 0.00 0.00 59 1018.3
20260508100157 13 328 3.2 0.0 0.00 0.00 0.00 59 1018.3
20260508100057 13 250 3.2 0.0 0.00 0.00 0.00 60 1018.3
20260508095957 13 236 1.6 0.0 0.00 0.00 0.00 59 1018.3
20260508095857 13 253 3.2 0.0 0.00 0.00 0.00 58 1018.2
20260508095757 13 252 8.0 0.0 0.00 0.00 0.00 59 1018.3
20260508095657 13 260 3.2 0.0 0.00 0.00 0.00 60 1018.3
20260508095557 13 280 1.6 0.0 0.00 0.00 0.00 59 1018.3
20260508095457 13 153 1.6 0.0 0.00 0.00 0.00 59 1018.3
20260508095357 13 207 3.2 0.0 0.00 0.00 0.00 58 1018.3
20260508095257 13 165 3.2 0.0 0.00 0.00 0.00 59 1018.3
20260508095157 13 156 1.6 0.0 0.00 0.00 0.00 59 1018.3
20260508095057 13 161 6.4 0.0 0.00 0.00 0.00 58 1018.4
20260508094957 13 96 3.2 0.0 0.00 0.00 0.00 59 1018.3
20260508094857 13 157 3.2 0.0 0.00 0.00 0.00 58 1018.3
20260508094757 13 319 6.4 0.0 0.00 0.00 0.00 57 1018.4
20260508094657 13 305 4.8 0.0 0.00 0.00 0.00 58 1018.3
20260508094556 13 255 4.8 0.0 0.00 0.00 0.00 59 1018.4
20260508094456 13 281 4.8 0.0 0.00 0.00 0.00 60 1018.3
20260508094356 13 337 1.6 0.0 0.00 0.00 0.00 59 1018.4
20260508094256 13 40 4.8 0.0 0.00 0.00 0.00 60 1018.4
20260508094156 13 312 4.8 0.0 0.00 0.00 0.00 62 1018.5
20260508094056 13 261 1.6 0.0 0.00 0.00 0.00 61 1018.4
20260508093956 13 125 4.8 0.0 0.00 0.00 0.00 60 1018.5
20260508093856 13 262 8.0 0.0 0.00 0.00 0.00 65 1018.5
20260508093756 13 216 1.6 0.0 0.00 0.00 0.00 67 1018.5
20260508093656 12 222 1.6 0.0 0.00 0.00 0.00 65 1018.5
20260508093556 12 101 1.6 0.0 0.00 0.00 0.00 65 1018.5
20260508093456 12 152 4.8 0.0 0.00 0.00 0.00 64 1018.5
20260508093356 12 156 3.2 0.0 0.00 0.00 0.00 64 1018.5
20260508093256 12 70 3.2 0.0 0.00 0.00 0.00 67 1018.6
20260508093156 12 118 4.8 0.0 0.00 0.00 0.00 67 1018.6
20260508093056 12 116 1.6 0.0 0.00 0.00 0.00 65 1018.5
20260508092955 12 189 6.4 0.0 0.00 0.00 0.00 64 1018.6
20260508092856 12 192 6.4 0.0 0.00 0.00 0.00 65 1018.6
20260508092755 12 151 4.8 0.0 0.00 0.00 0.00 67 1018.7
20260508092655 12 321 1.6 0.0 0.00 0.00 0.00 68 1018.6
20260508092555 11 224 0.0 0.0 0.00 0.00 0.00 67 1018.7
20260508092455 11 144 3.2 0.0 0.00 0.00 0.00 67 1018.7
20260508092355 11 155 3.2 0.0 0.00 0.00 0.00 67 1018.6
20260508092255 11 308 3.2 0.0 0.00 0.00 0.00 68 1018.6
20260508092155 11 273 1.6 0.0 0.00 0.00 0.00 68 1018.7
20260508092055 11 193 1.6 0.0 0.00 0.00 0.00 68 1018.6
20260508091955 11 44 0.0 0.0 0.00 0.00 0.00 68 1018.8
20260508091855 11 46 0.0 0.0 0.00 0.00 0.00 67 1018.6
20260508091755 11 93 3.2 0.0 0.00 0.00 0.00 67 1018.7
20260508091655 11 47 1.6 0.0 0.00 0.00 0.00 67 1018.8
20260508091555 11 248 1.6 0.0 0.00 0.00 0.00 67 1018.7
20260508091455 11 238 6.4 0.0 0.00 0.00 0.00 67 1018.8
20260508091354 11 248 3.2 0.0 0.00 0.00 0.00 67 1018.8
20260508091254 11 228 3.2 0.0 0.00 0.00 0.00 67 1018.8
20260508091154 11 245 4.8 0.0 0.00 0.00 0.00 68 1018.8
20260508091054 11 248 3.2 0.0 0.00 0.00 0.00 68 1018.6
20260508090954 11 244 4.8 0.0 0.00 0.00 0.00 69 1018.8
20260508090854 11 289 3.2 0.0 0.00 0.00 0.00 68 1018.7
20260508090754 11 274 4.8 0.0 0.00 0.00 0.00 68 1018.8
20260508090654 11 246 3.2 0.0 0.00 0.00 0.00 67 1018.8
20260508090554 11 248 3.2 0.0 0.00 0.00 0.00 66 1018.8
20260508090454 12 213 3.2 0.0 0.00 0.00 0.00 65 1018.8
20260508090354 12 251 6.4 0.0 0.00 0.00 0.00 65 1018.8
20260508090254 12 260 3.2 0.0 0.00 0.00 0.00 65 1018.8
20260508090154 12 233 1.6 0.0 0.00 0.00 0.00 65 1018.8
20260508090054 12 229 1.6 0.0 0.00 0.00 0.00 66 1018.8
20260508085954 12 37 3.2 0.0 0.00 0.00 0.00 67 1018.7
20260508085854 12 26 3.2 0.0 0.00 0.00 0.00 68 1018.7
20260508085754 12 291 1.6 0.0 0.00 0.00 0.00 68 1018.8
20260508085653 12 246 1.6 0.0 0.00 0.00 0.00 68 1018.7
20260508085553 12 223 1.6 0.0 0.00 0.00 0.00 66 1018.7
20260508085453 12 290 1.6 0.0 0.00 0.00 0.00 66 1018.7
20260508085353 12 334 4.8 0.0 0.00 0.00 0.00 66 1018.6
20260508085253 12 220 1.6 0.0 0.00 0.00 0.00 66 1018.8
20260508085153 12 346 3.2 0.0 0.00 0.00 0.00 65 1018.7
20260508085053 12 232 3.2 0.0 0.00 0.00 0.00 65 1018.7
20260508084953 12 124 3.2 0.0 0.00 0.00 0.00 67 1018.7
20260508084853 12 321 3.2 0.0 0.00 0.00 0.00 67 1018.8
20260508084753 12 311 4.8 0.0 0.00 0.00 0.00 67 1018.8
20260508084653 12 253 3.2 0.0 0.00 0.00 0.00 67 1018.7
20260508084553 12 240 6.4 0.0 0.00 0.00 0.00 67 1018.7
20260508084453 12 294 3.2 0.0 0.00 0.00 0.00 66 1018.8
20260508084353 12 224 4.8 0.0 0.00 0.00 0.00 65 1018.8
20260508084253 12 252 3.2 0.0 0.00 0.00 0.00 65 1018.8
20260508084152 12 247 1.6 0.0 0.00 0.00 0.00 64 1018.8
20260508084052 12 37 0.0 0.0 0.00 0.00 0.00 63 1018.8
20260508083952 12 151 0.0 0.0 0.00 0.00 0.00 61 1018.9
20260508083852 12 38 1.6 0.0 0.00 0.00 0.00 61 1018.9
20260508083752 12 264 3.2 0.0 0.00 0.00 0.00 61 1018.8
20260508083652 12 173 0.0 0.0 0.00 0.00 0.00 59 1018.8
20260508083552 12 55 3.2 0.0 0.00 0.00 0.00 58 1018.8
20260508083452 12 71 3.2 0.0 0.00 0.00 0.00 58 1018.8
20260508083352 12 153 3.2 0.0 0.00 0.00 0.00 59 1018.7
20260508083252 12 163 3.2 0.0 0.00 0.00 0.00 61 1018.7
20260508083152 12 170 1.6 0.0 0.00 0.00 0.00 60 1018.7
20260508083052 12 296 3.2 0.0 0.00 0.00 0.00 59 1018.8
20260508082952 12 283 3.2 0.0 0.00 0.00 0.00 59 1018.8
20260508082852 12 305 3.2 0.0 0.00 0.00 0.00 61 1018.8
20260508082752 12 40 4.8 0.0 0.00 0.00 0.00 63 1018.8
20260508082652 12 156 3.2 0.0 0.00 0.00 0.00 63 1018.7
20260508082552 12 346 4.8 0.0 0.00 0.00 0.00 65 1018.8
20260508082451 13 100 3.2 0.0 0.00 0.00 0.00 65 1018.8
20260508082351 13 166 4.8 0.0 0.00 0.00 0.00 65 1018.7
20260508082251 13 168 3.2 0.0 0.00 0.00 0.00 65 1018.7
20260508082151 13 231 3.2 0.0 0.00 0.00 0.00 63 1018.7
20260508082051 13 318 3.2 0.0 0.00 0.00 0.00 64 1018.7
20260508081951 12 243 1.6 0.0 0.00 0.00 0.00 65 1018.7
20260508081851 12 156 1.6 0.0 0.00 0.00 0.00 67 1018.7
20260508081751 12 243 1.6 0.0 0.00 0.00 0.00 69 1018.7
20260508081651 12 111 1.6 0.0 0.00 0.00 0.00 69 1018.7
20260508081551 12 312 1.6 0.0 0.00 0.00 0.00 68 1018.7
20260508081451 12 168 6.4 0.0 0.00 0.00 0.00 68 1018.6
20260508081351 12 202 3.2 0.0 0.00 0.00 0.00 68 1018.7
20260508081251 12 334 3.2 0.0 0.00 0.00 0.00 69 1018.7
20260508081151 12 89 3.2 0.0 0.00 0.00 0.00 69 1018.6
20260508081051 12 139 4.8 0.0 0.00 0.00 0.00 70 1018.7
20260508080951 12 157 4.8 0.0 0.00 0.00 0.00 73 1018.7
20260508080851 12 67 3.2 0.0 0.00 0.00 0.00 74 1018.7
20260508080750 11 135 3.2 0.0 0.00 0.00 0.00 76 1018.6
20260508080650 11 180 1.6 0.0 0.00 0.00 0.00 76 1018.7
20260508080550 11 160 1.6 0.0 0.00 0.00 0.00 75 1018.7
20260508080450 11 135 1.6 0.0 0.00 0.00 0.00 75 1018.8
20260508080350 10 108 3.2 0.0 0.00 0.00 0.00 78 1018.6
20260508080250 10 168 1.6 0.0 0.00 0.00 0.00 78 1018.7
20260508080150 10 184 1.6 0.0 0.00 0.00 0.00 78 1018.6
20260508080050 10 353 3.2 0.0 0.00 0.00 0.00 78 1018.7
20260508075950 10 277 3.2 0.0 0.00 0.00 0.00 79 1018.7
20260508075850 10 113 0.0 0.0 0.00 0.00 0.00 79 1018.5
20260508075750 10 105 3.2 0.0 0.00 0.00 0.00 79 1018.6
20260508075650 10 248 3.2 0.0 0.00 0.00 0.00 80 1018.6
20260508075550 9 327 1.6 0.0 0.00 0.00 0.00 79 1018.6
20260508075450 10 299 3.2 0.0 0.00 0.00 0.00 79 1018.7
20260508075350 10 16 1.6 0.0 0.00 0.00 0.00 79 1018.7
20260508075250 10 283 4.8 0.0 0.00 0.00 0.00 81 1018.6
20260508075149 10 278 3.2 0.0 0.00 0.00 0.00 82 1018.6
20260508075049 10 332 3.2 0.0 0.00 0.00 0.00 82 1018.6
20260508074949 10 353 1.6 0.0 0.00 0.00 0.00 82 1018.7
20260508074849 10 267 3.2 0.0 0.00 0.00 0.00 82 1018.8
20260508074749 10 222 3.2 0.0 0.00 0.00 0.00 82 1018.7
20260508074649 10 289 3.2 0.0 0.00 0.00 0.00 83 1018.7
20260508074549 10 195 0.0 0.0 0.00 0.00 0.00 83 1018.6
20260508074449 10 297 0.0 0.0 0.00 0.00 0.00 83 1018.7
20260508074349 10 289 1.6 0.0 0.00 0.00 0.00 83 1018.7
20260508074249 10 269 0.0 0.0 0.00 0.00 0.00 83 1018.7
20260508074149 9 214 1.6 0.0 0.00 0.00 0.00 84 1018.6
20260508074049 9 248 1.6 0.0 0.00 0.00 0.00 84 1018.7
20260508073949 9 294 1.6 0.0 0.00 0.00 0.00 84 1018.6
20260508073849 9 17 3.2 0.0 0.00 0.00 0.00 85 1018.7
20260508073749 9 117 0.0 0.0 0.00 0.00 0.00 84 1018.6
20260508073649 9 120 1.6 0.0 0.00 0.00 0.00 84 1018.7
20260508073548 9 42 4.8 0.0 0.00 0.00 0.00 83 1018.7
20260508073448 9 325 1.6 0.0 0.00 0.00 0.00 84 1018.6
20260508073348 9 23 1.6 0.0 0.00 0.00 0.00 84 1018.7
20260508073248 9 141 3.2 0.0 0.00 0.00 0.00 85 1018.7
20260508073148 9 289 1.6 0.0 0.00 0.00 0.00 85 1018.7
20260508073048 9 35 0.0 0.0 0.00 0.00 0.00 86 1018.7
20260508072948 9 230 0.0 0.0 0.00 0.00 0.00 86 1018.6
20260508072848 9 306 0.0 0.0 0.00 0.00 0.00 85 1018.7
20260508072748 9 306 0.0 0.0 0.00 0.00 0.00 86 1018.6
20260508072648 9 272 1.6 0.0 0.00 0.00 0.00 86 1018.6
20260508072548 9 138 1.6 0.0 0.00 0.00 0.00 87 1018.6
20260508072448 9 282 1.6 0.0 0.00 0.00 0.00 87 1018.7
20260508072348 9 147 1.6 0.0 0.00 0.00 0.00 87 1018.5
20260508072248 9 162 1.6 0.0 0.00 0.00 0.00 87 1018.6
20260508072148 9 230 0.0 0.0 0.00 0.00 0.00 87 1018.6
20260508072048 8 38 1.6 0.0 0.00 0.00 0.00 87 1018.6
20260508071948 8 52 0.0 0.0 0.00 0.00 0.00 87 1018.6
20260508071847 8 345 0.0 0.0 0.00 0.00 0.00 87 1018.6
20260508071747 8 357 1.6 0.0 0.00 0.00 0.00 87 1018.5
20260508071647 8 315 0.0 0.0 0.00 0.00 0.00 88 1018.6
20260508071547 8 280 1.6 0.0 0.00 0.00 0.00 88 1018.6
20260508071447 8 14 1.6 0.0 0.00 0.00 0.00 88 1018.6
20260508071347 8 50 0.0 0.0 0.00 0.00 0.00 88 1018.6
20260508071247 8 126 0.0 0.0 0.00 0.00 0.00 88 1018.6
20260508071147 8 19 1.6 0.0 0.00 0.00 0.00 88 1018.7
20260508071047 8 74 1.6 0.0 0.00 0.00 0.00 88 1018.6
20260508070947 8 84 1.6 0.0 0.00 0.00 0.00 89 1018.7
20260508070847 8 119 1.6 0.0 0.00 0.00 0.00 89 1018.7
20260508070747 8 329 1.6 0.0 0.00 0.00 0.00 88 1018.7
20260508070647 8 228 1.6 0.0 0.00 0.00 0.00 88 1018.6
20260508070547 8 166 0.0 0.0 0.00 0.00 0.00 88 1018.6
20260508070447 8 223 3.2 0.0 0.00 0.00 0.00 88 1018.7
20260508070347 8 306 1.6 0.0 0.00 0.00 0.00 89 1018.6
20260508070246 8 102 1.6 0.0 0.00 0.00 0.00 89 1018.5
20260508070146 8 326 1.6 0.0 0.00 0.00 0.00 89 1018.7
20260508070046 8 33 1.6 0.0 0.00 0.00 0.00 89 1018.6
20260508065946 8 63 1.6 0.0 0.00 0.00 0.00 89 1018.6
20260508065846 8 148 1.6 0.0 0.00 0.00 0.00 89 1018.5
20260508065746 8 150 1.6 0.0 0.00 0.00 0.00 89 1018.5
20260508065646 8 103 1.6 0.0 0.00 0.00 0.00 89 1018.5
20260508065546 8 196 1.6 0.0 0.00 0.00 0.00 89 1018.5
20260508065446 8 124 0.0 0.0 0.00 0.00 0.00 90 1018.5
20260508065346 8 321 0.0 0.0 0.00 0.00 0.00 90 1018.5
20260508065246 8 315 1.6 0.0 0.00 0.00 0.00 89 1018.5
20260508065146 8 86 1.6 0.0 0.00 0.00 0.00 89 1018.5
20260508065046 8 141 0.0 0.0 0.00 0.00 0.00 89 1018.4
20260508064946 8 205 1.6 0.0 0.00 0.00 0.00 89 1018.5
20260508064846 8 219 1.6 0.0 0.00 0.00 0.00 90 1018.5
20260508064746 8 247 0.0 0.0 0.00 0.00 0.00 90 1018.5
20260508064646 8 336 1.6 0.0 0.00 0.00 0.00 90 1018.5
20260508064545 8 174 1.6 0.0 0.00 0.00 0.00 90 1018.5
20260508064445 8 126 0.0 0.0 0.00 0.00 0.00 90 1018.5
20260508064345 8 133 1.6 0.0 0.00 0.00 0.00 90 1018.5
20260508064245 8 318 1.6 0.0 0.00 0.00 0.00 90 1018.5
20260508064145 8 135 0.0 0.0 0.00 0.00 0.00 90 1018.4
20260508064045 8 55 0.0 0.0 0.00 0.00 0.00 90 1018.4
20260508063945 8 20 0.0 0.0 0.00 0.00 0.00 90 1018.4
20260508063845 8 37 1.6 0.0 0.00 0.00 0.00 90 1018.4
20260508063745 8 263 1.6 0.0 0.00 0.00 0.00 90 1018.4
20260508063645 8 40 1.6 0.0 0.00 0.00 0.00 90 1018.4
20260508063545 8 93 1.6 0.0 0.00 0.00 0.00 90 1018.5
20260508063445 8 68 1.6 0.0 0.00 0.00 0.00 90 1018.3
20260508063345 8 61 1.6 0.0 0.00 0.00 0.00 90 1018.3
20260508063245 8 124 1.6 0.0 0.00 0.00 0.00 90 1018.3
20260508063145 8 70 1.6 0.0 0.00 0.00 0.00 90 1018.3
20260508063045 8 230 0.0 0.0 0.00 0.00 0.00 90 1018.3
20260508062944 8 304 0.0 0.0 0.00 0.00 0.00 90 1018.2
20260508062844 8 215 1.6 0.0 0.00 0.00 0.00 90 1018.2
20260508062744 8 66 0.0 0.0 0.00 0.00 0.00 90 1018.2
20260508062644 8 42 1.6 0.0 0.00 0.00 0.00 90 1018.3
20260508062544 8 119 0.0 0.0 0.00 0.00 0.00 90 1018.3
20260508062444 8 0 0.0 0.0 0.00 0.00 0.00 90 1018.2
20260508062344 8 325 0.0 0.0 0.00 0.00 0.00 90 1018.2
20260508062244 8 93 1.6 0.0 0.00 0.00 0.00 90 1018.3
20260508062144 8 345 0.0 0.0 0.00 0.00 0.00 90 1018.2
20260508062044 8 102 0.0 0.0 0.00 0.00 0.00 91 1018.3
20260508061944 8 306 1.6 0.0 0.00 0.00 0.00 91 1018.2
20260508061844 8 164 1.6 0.0 0.00 0.00 0.00 91 1018.2
20260508061744 8 76 0.0 0.0 0.00 0.00 0.00 91 1018.2
20260508061644 8 297 0.0 0.0 0.00 0.00 0.00 91 1018.3
20260508061544 8 323 1.6 0.0 0.00 0.00 0.00 91 1018.2
20260508061444 8 119 0.0 0.0 0.00 0.00 0.00 91 1018.2
20260508061344 8 60 1.6 0.0 0.00 0.00 0.00 91 1018.2
20260508061243 8 103 1.6 0.0 0.00 0.00 0.00 91 1018.2
20260508061143 7 269 1.6 0.0 0.00 0.00 0.00 91 1018.1
20260508061043 7 329 0.0 0.0 0.00 0.00 0.00 91 1018.2
20260508060943 7 67 0.0 0.0 0.00 0.00 0.00 91 1018.1
20260508060843 7 113 1.6 0.0 0.00 0.00 0.00 91 1018.0
20260508060743 7 297 1.6 0.0 0.00 0.00 0.00 91 1018.1
20260508060643 7 219 1.6 0.0 0.00 0.00 0.00 92 1018.1
20260508060543 7 63 1.6 0.0 0.00 0.00 0.00 92 1018.0
20260508060443 7 271 1.6 4.8 0.00 0.00 0.00 92 1018.1
20260508060343 7 253 1.6 0.0 0.00 0.00 0.00 92 1018.1
20260508060243 7 98 1.6 0.0 0.00 0.00 0.00 92 1018.1
20260508060143 7 63 1.6 0.0 0.00 0.00 0.00 92 1018.0
20260508060043 7 218 0.0 0.0 0.00 0.00 0.00 92 1018.0
20260508055943 7 0 0.0 0.0 0.00 0.00 0.00 92 1018.0
20260508055843 7 111 0.0 0.0 0.00 0.00 0.00 92 1018.1
20260508055743 7 111 0.0 0.0 0.00 0.00 0.00 92 1018.0
20260508055642 7 299 0.0 0.0 0.00 0.00 0.00 92 1018.0
20260508055542 7 299 0.0 0.0 0.00 0.00 0.00 93 1018.0
20260508055442 7 117 0.0 0.0 0.00 0.00 0.00 93 1018.0
20260508055342 7 309 0.0 0.0 0.00 0.00 0.00 93 1018.0
20260508055242 7 124 0.0 0.0 0.00 0.00 0.00 93 1018.0
20260508055142 7 224 1.6 0.0 0.00 0.00 0.00 93 1017.9
20260508055042 7 149 0.0 0.0 0.00 0.00 0.00 93 1018.0
20260508054942 7 243 0.0 0.0 0.00 0.00 0.00 93 1018.0
20260508054842 7 76 1.6 0.0 0.00 0.00 0.00 93 1017.9
20260508054742 7 207 1.6 0.0 0.00 0.00 0.00 93 1017.9
20260508054642 7 135 0.0 0.0 0.00 0.00 0.00 93 1017.8
20260508054542 7 133 0.0 0.0 0.00 0.00 0.00 93 1018.0
20260508054442 7 62 0.0 0.0 0.00 0.00 0.00 93 1017.9
20260508054342 7 117 1.6 0.0 0.00 0.00 0.00 93 1018.0
20260508054242 7 15 1.6 0.0 0.00 0.00 0.00 93 1017.9
20260508054142 7 7 1.6 0.0 0.00 0.00 0.00 93 1017.9
20260508054042 7 334 0.0 0.0 0.00 0.00 0.00 93 1018.0
20260508053941 7 66 0.0 0.0 0.00 0.00 0.00 93 1018.0
20260508053841 7 180 0.0 0.0 0.00 0.00 0.00 93 1017.8
20260508053741 7 242 0.0 0.0 0.00 0.00 0.00 93 1018.0
20260508053641 7 78 0.0 0.0 0.00 0.00 0.00 93 1018.0
20260508053541 7 185 1.6 0.0 0.00 0.00 0.00 94 1017.9
20260508053441 7 235 1.6 0.0 0.00 0.00 0.00 94 1018.0
20260508053341 7 205 0.0 0.0 0.00 0.00 0.00 93 1018.0
20260508053241 7 150 1.6 0.0 0.00 0.00 0.00 94 1017.9
20260508053141 7 218 1.6 0.0 0.00 0.00 0.00 93 1017.9
20260508053041 7 149 0.0 0.0 0.00 0.00 0.00 93 1017.8
20260508052941 7 62 0.0 0.0 0.00 0.00 0.00 93 1017.8
20260508052841 7 71 1.6 0.0 0.00 0.00 0.00 94 1017.8
20260508052741 7 212 1.6 0.0 0.00 0.00 0.00 94 1018.0
20260508052641 7 241 1.6 0.0 0.00 0.00 0.00 94 1017.9
20260508052541 7 319 0.0 0.0 0.00 0.00 0.00 94 1017.8
20260508052441 7 64 1.6 0.0 0.00 0.00 0.00 94 1017.9
20260508052340 7 126 1.6 0.0 0.00 0.00 0.00 94 1017.9
20260508052241 7 67 1.6 0.0 0.00 0.00 0.00 94 1017.9
20260508052140 7 50 1.6 0.0 0.00 0.00 0.00 94 1017.8
20260508052040 7 74 1.6 0.0 0.00 0.00 0.00 94 1017.8
20260508051940 7 46 1.6 0.0 0.00 0.00 0.00 94 1017.8
20260508051840 7 315 0.0 0.0 0.00 0.00 0.00 94 1017.9
20260508051740 7 315 0.0 0.0 0.00 0.00 0.00 94 1017.8
20260508051640 7 311 1.6 0.0 0.00 0.00 0.00 94 1017.8
20260508051540 7 12 0.0 0.0 0.00 0.00 0.00 94 1017.8
20260508051440 7 333 0.0 0.0 0.00 0.00 0.00 94 1017.8
20260508051340 7 297 0.0 0.0 0.00 0.00 0.00 94 1017.8
20260508051240 7 353 0.0 0.0 0.00 0.00 0.00 94 1017.9
20260508051140 7 184 0.0 0.0 0.00 0.00 0.00 94 1018.0
20260508051040 7 66 1.6 0.0 0.00 0.00 0.00 94 1017.9
20260508050940 7 66 0.0 0.0 0.00 0.00 0.00 94 1017.9
20260508050839 7 179 0.0 0.0 0.00 0.00 0.00 94 1017.8
20260508050739 7 177 0.0 0.0 0.00 0.00 0.00 94 1017.8
20260508050639 7 150 0.0 0.0 0.00 0.00 0.00 94 1017.8
20260508050539 7 150 0.0 0.0 0.00 0.00 0.00 94 1017.8
20260508050439 7 152 0.0 0.0 0.00 0.00 0.00 94 1017.8
20260508050339 7 269 0.0 0.0 0.00 0.00 0.00 94 1017.8
20260508050239 7 24 3.2 0.0 0.00 0.00 0.00 94 1017.8
20260508050139 7 315 1.6 0.0 0.00 0.00 0.00 94 1017.9
20260508050039 7 267 3.2 0.0 0.00 0.00 0.00 94 1017.8
20260508045939 7 135 0.0 0.0 0.00 0.00 0.00 94 1017.7
20260508045839 7 131 0.0 0.0 0.00 0.00 0.00 94 1017.8
20260508045739 7 130 0.0 0.0 0.00 0.00 0.00 94 1017.8
20260508045639 7 217 0.0 0.0 0.00 0.00 0.00 94 1017.8
20260508045539 7 89 0.0 0.0 0.00 0.00 0.00 94 1017.7
20260508045439 7 117 0.0 0.0 0.00 0.00 0.00 95 1017.7
20260508045339 7 110 1.6 0.0 0.00 0.00 0.00 95 1017.6
20260508045239 7 57 0.0 0.0 0.00 0.00 0.00 94 1017.6
20260508045138 7 304 0.0 0.0 0.00 0.00 0.00 95 1017.8
20260508045038 7 1 0.0 0.0 0.00 0.00 0.00 95 1017.6
20260508044938 7 55 0.0 0.0 0.00 0.00 0.00 95 1017.7
20260508044838 7 55 0.0 0.0 0.00 0.00 0.00 95 1017.6
20260508044738 7 55 0.0 0.0 0.00 0.00 0.00 95 1017.6
20260508044638 7 302 0.0 0.0 0.00 0.00 0.00 95 1017.6
20260508044538 7 55 0.0 0.0 0.00 0.00 0.00 95 1017.7
20260508044438 7 6 0.0 0.0 0.00 0.00 0.00 95 1017.5
20260508044338 7 240 0.0 0.0 0.00 0.00 0.00 95 1017.6
20260508044238 7 161 0.0 0.0 0.00 0.00 0.00 95 1017.6
20260508044138 7 261 0.0 0.0 0.00 0.00 0.00 95 1017.6
20260508044038 7 282 0.0 0.0 0.00 0.00 0.00 95 1017.6
20260508043938 7 154 0.0 0.0 0.00 0.00 0.00 95 1017.6
20260508043838 7 156 0.0 0.0 0.00 0.00 0.00 95 1017.6
20260508043738 7 59 0.0 0.0 0.00 0.00 0.00 95 1017.6
20260508043638 7 62 0.0 0.0 0.00 0.00 0.00 95 1017.6
20260508043537 7 235 0.0 0.0 0.00 0.00 0.00 95 1017.6
20260508043437 7 73 0.0 0.0 0.00 0.00 0.00 95 1017.5
20260508043337 7 255 1.6 0.0 0.00 0.00 0.00 95 1017.5
20260508043237 7 297 0.0 0.0 0.00 0.00 0.00 95 1017.6
20260508043137 7 62 0.0 0.0 0.00 0.00 0.00 95 1017.5
20260508043037 7 242 0.0 0.0 0.00 0.00 0.00 95 1017.5
20260508042937 7 280 0.0 0.0 0.00 0.00 0.00 95 1017.6
20260508042837 7 296 0.0 0.0 0.00 0.00 0.00 95 1017.5
20260508042737 7 230 0.0 0.0 0.00 0.00 0.00 95 1017.5
20260508042637 7 202 0.0 0.0 0.00 0.00 0.00 95 1017.5
20260508042537 7 202 0.0 0.0 0.00 0.00 0.00 95 1017.6
20260508042437 7 202 0.0 0.0 0.00 0.00 0.00 95 1017.5
20260508042337 7 142 0.0 0.0 0.00 0.00 0.00 95 1017.5
20260508042237 7 142 0.0 0.0 0.00 0.00 0.00 95 1017.3
20260508042137 7 50 0.0 0.0 0.00 0.00 0.00 95 1017.4
20260508042037 7 50 0.0 0.0 0.00 0.00 0.00 95 1017.5
20260508041936 7 50 0.0 0.0 0.00 0.00 0.00 95 1017.4
20260508041836 7 50 0.0 0.0 0.00 0.00 0.00 95 1017.4
20260508041736 7 50 0.0 0.0 0.00 0.00 0.00 95 1017.5
20260508041636 7 55 0.0 0.0 0.00 0.00 0.00 95 1017.4
20260508041536 7 55 0.0 0.0 0.00 0.00 0.00 95 1017.4
20260508041436 7 50 0.0 0.0 0.00 0.00 0.00 95 1017.4
20260508041336 7 129 0.0 0.0 0.00 0.00 0.00 95 1017.3
20260508041236 7 129 0.0 0.0 0.00 0.00 0.00 95 1017.4
20260508041136 7 224 0.0 0.0 0.00 0.00 0.00 95 1017.5
20260508041036 7 304 0.0 0.0 0.00 0.00 0.00 95 1017.4
20260508040936 7 287 1.6 0.0 0.00 0.00 0.00 95 1017.3
20260508040836 7 18 0.0 0.0 0.00 0.00 0.00 95 1017.4
20260508040736 7 74 0.0 0.0 0.00 0.00 0.00 95 1017.4
20260508040636 7 50 0.0 0.0 0.00 0.00 0.00 95 1017.3
20260508040536 7 32 0.0 0.0 0.00 0.00 0.00 95 1017.4
20260508040436 7 345 0.0 0.0 0.00 0.00 0.00 95 1017.3
20260508040336 7 306 0.0 0.0 0.00 0.00 0.00 95 1017.4
20260508040235 7 299 0.0 0.0 0.00 0.00 0.00 95 1017.4
20260508040135 7 299 0.0 0.0 0.00 0.00 0.00 95 1017.4
20260508040035 7 269 0.0 0.0 0.00 0.00 0.00 95 1017.4
20260508035935 7 269 0.0 0.0 0.00 0.00 0.00 95 1017.4
20260508035835 7 145 0.0 0.0 0.00 0.00 0.00 95 1017.4
20260508035735 7 89 0.0 0.0 0.00 0.00 0.00 95 1017.4
20260508035635 7 89 0.0 0.0 0.00 0.00 0.00 95 1017.4
20260508035535 7 49 0.0 0.0 0.00 0.00 0.00 95 1017.4
20260508035435 7 49 0.0 0.0 0.00 0.00 0.00 95 1017.4
20260508035335 7 49 0.0 0.0 0.00 0.00 0.00 95 1017.4
20260508035235 7 297 0.0 0.0 0.00 0.00 0.00 95 1017.4
20260508035135 7 87 0.0 0.0 0.00 0.00 0.00 95 1017.4
20260508035035 7 353 1.6 0.0 0.00 0.00 0.00 95 1017.4
20260508034935 7 352 0.0 0.0 0.00 0.00 0.00 95 1017.4
20260508034835 7 353 0.0 0.0 0.00 0.00 0.00 95 1017.2
20260508034735 7 304 1.6 0.0 0.00 0.00 0.00 95 1017.4
20260508034634 7 290 0.0 0.0 0.00 0.00 0.00 95 1017.3
20260508034534 7 117 0.0 0.0 0.00 0.00 0.00 95 1017.3
20260508034434 7 57 0.0 0.0 0.00 0.00 0.00 95 1017.4
20260508034334 7 57 0.0 0.0 0.00 0.00 0.00 95 1017.4
20260508034234 7 319 1.6 0.0 0.00 0.00 0.00 95 1017.4
20260508034134 7 42 1.6 0.0 0.00 0.00 0.00 95 1017.3
20260508034034 7 296 1.6 0.0 0.00 0.00 0.00 95 1017.4
20260508033934 7 126 0.0 0.0 0.00 0.00 0.00 95 1017.3
20260508033834 7 76 0.0 0.0 0.00 0.00 0.00 95 1017.4
20260508033734 7 157 0.0 0.0 0.00 0.00 0.00 95 1017.3
20260508033634 7 117 0.0 0.0 0.00 0.00 0.00 95 1017.4
20260508033534 7 93 0.0 0.0 0.00 0.00 0.00 95 1017.4
20260508033434 7 58 0.0 0.0 0.00 0.00 0.00 95 1017.4
20260508033334 7 294 0.0 0.0 0.00 0.00 0.00 95 1017.3
20260508033234 7 238 1.6 0.0 0.00 0.00 0.00 95 1017.3
20260508033134 7 129 0.0 0.0 0.00 0.00 0.00 95 1017.3
20260508033033 7 129 0.0 0.0 0.00 0.00 0.00 95 1017.4
20260508032933 7 117 0.0 0.0 0.00 0.00 0.00 95 1017.4
20260508032833 7 117 0.0 0.0 0.00 0.00 0.00 95 1017.4
20260508032733 7 117 0.0 0.0 0.00 0.00 0.00 95 1017.3
20260508032633 7 117 0.0 0.0 0.00 0.00 0.00 95 1017.3
20260508032533 7 322 0.0 0.0 0.00 0.00 0.00 95 1017.4
20260508032433 7 322 0.0 0.0 0.00 0.00 0.00 94 1017.3
20260508032333 7 224 0.0 0.0 0.00 0.00 0.00 94 1017.4
20260508032233 7 256 0.0 0.0 0.00 0.00 0.00 94 1017.4
20260508032133 7 256 0.0 0.0 0.00 0.00 0.00 94 1017.3
20260508032033 7 256 0.0 0.0 0.00 0.00 0.00 94 1017.3
20260508031933 7 286 0.0 0.0 0.00 0.00 0.00 94 1017.4
20260508031833 7 325 0.0 0.0 0.00 0.00 0.00 94 1017.3
20260508031733 7 293 1.6 0.0 0.00 0.00 0.00 94 1017.3
20260508031633 7 32 0.0 0.0 0.00 0.00 0.00 94 1017.3
20260508031533 7 62 0.0 0.0 0.00 0.00 0.00 94 1017.3
20260508031433 7 76 1.6 0.0 0.00 0.00 0.00 94 1017.3
20260508031332 7 62 0.0 0.0 0.00 0.00 0.00 94 1017.3
20260508031232 7 117 0.0 0.0 0.00 0.00 0.00 94 1017.2
20260508031132 7 117 0.0 0.0 0.00 0.00 0.00 94 1017.3
20260508031032 7 121 0.0 0.0 0.00 0.00 0.00 94 1017.3
20260508030932 7 283 0.0 0.0 0.00 0.00 0.00 94 1017.3
20260508030832 7 283 0.0 0.0 0.00 0.00 0.00 94 1017.3
20260508030732 7 212 0.0 0.0 0.00 0.00 0.00 94 1017.2
20260508030632 7 354 0.0 0.0 0.00 0.00 0.00 94 1017.2
20260508030532 7 326 1.6 0.0 0.00 0.00 0.00 94 1017.3
20260508030432 7 309 0.0 0.0 0.00 0.00 0.00 94 1017.3
20260508030332 7 309 0.0 0.0 0.00 0.00 0.00 94 1017.2
20260508030232 7 58 0.0 0.0 0.00 0.00 0.00 94 1017.3
20260508030132 7 269 0.0 0.0 0.00 0.00 0.00 94 1017.3
20260508030032 7 322 0.0 0.0 0.00 0.00 0.00 94 1017.3
20260508025932 7 334 0.0 0.0 0.00 0.00 0.00 94 1017.2
20260508025832 7 62 0.0 0.0 0.00 0.00 0.00 94 1017.2
20260508025731 7 293 0.0 0.0 0.00 0.00 0.00 94 1017.4
20260508025631 7 293 0.0 0.0 0.00 0.00 0.00 94 1017.3
20260508025531 7 293 0.0 0.0 0.00 0.00 0.00 94 1017.3
20260508025431 7 293 1.6 0.0 0.00 0.00 0.00 94 1017.2
20260508025331 7 50 0.0 0.0 0.00 0.00 0.00 94 1017.4
20260508025231 7 50 0.0 0.0 0.00 0.00 0.00 94 1017.3
20260508025131 7 50 0.0 0.0 0.00 0.00 0.00 94 1017.3
20260508025031 7 71 0.0 0.0 0.00 0.00 0.00 94 1017.3
20260508024931 7 129 0.0 0.0 0.00 0.00 0.00 94 1017.3
20260508024831 7 125 0.0 0.0 0.00 0.00 0.00 94 1017.4
20260508024731 7 32 0.0 0.0 0.00 0.00 0.00 94 1017.3
20260508024631 7 32 0.0 0.0 0.00 0.00 0.00 94 1017.4
20260508024531 7 76 1.6 0.0 0.00 0.00 0.00 94 1017.3
20260508024431 7 62 0.0 0.0 0.00 0.00 0.00 94 1017.4
20260508024331 7 269 0.0 0.0 0.00 0.00 0.00 94 1017.4
20260508024231 7 269 0.0 0.0 0.00 0.00 0.00 94 1017.4
20260508024131 7 269 1.6 0.0 0.00 0.00 0.00 94 1017.4
20260508024030 7 313 0.0 0.0 0.00 0.00 0.00 94 1017.4
20260508023930 7 310 0.0 0.0 0.00 0.00 0.00 94 1017.4
20260508023830 7 119 0.0 0.0 0.00 0.00 0.00 94 1017.3
20260508023730 7 119 0.0 0.0 0.00 0.00 0.00 94 1017.4
20260508023630 7 119 0.0 0.0 0.00 0.00 0.00 94 1017.4
20260508023530 7 157 0.0 0.0 0.00 0.00 0.00 94 1017.5
20260508023430 7 269 0.0 0.0 0.00 0.00 0.00 94 1017.4
20260508023330 7 246 0.0 0.0 0.00 0.00 0.00 94 1017.3
20260508023230 7 246 0.0 0.0 0.00 0.00 0.00 94 1017.3
20260508023130 7 269 0.0 0.0 0.00 0.00 0.00 94 1017.3
20260508023030 7 283 0.0 0.0 0.00 0.00 0.00 94 1017.4
20260508022930 7 283 0.0 0.0 0.00 0.00 0.00 94 1017.4
20260508022830 7 3 1.6 0.0 0.00 0.00 0.00 94 1017.3
20260508022730 7 6 1.6 0.0 0.00 0.00 0.00 94 1017.3
20260508022630 7 55 0.0 0.0 0.00 0.00 0.00 94 1017.5
20260508022530 7 224 1.6 0.0 0.00 0.00 0.00 94 1017.4
20260508022429 7 89 1.6 0.0 0.00 0.00 0.00 94 1017.4
20260508022329 7 66 0.0 0.0 0.00 0.00 0.00 94 1017.3
20260508022229 7 66 0.0 0.0 0.00 0.00 0.00 94 1017.4
20260508022129 7 283 0.0 0.0 0.00 0.00 0.00 94 1017.4
20260508022029 7 62 0.0 0.0 0.00 0.00 0.00 94 1017.4
20260508021929 7 62 0.0 0.0 0.00 0.00 0.00 94 1017.4
20260508021829 7 62 0.0 0.0 0.00 0.00 0.00 94 1017.3
20260508021729 7 62 0.0 0.0 0.00 0.00 0.00 94 1017.4
20260508021629 7 119 0.0 0.0 0.00 0.00 0.00 94 1017.4
20260508021529 7 249 0.0 0.0 0.00 0.00 0.00 94 1017.4
20260508021429 7 72 0.0 0.0 0.00 0.00 0.00 94 1017.4
20260508021329 7 47 0.0 0.0 0.00 0.00 0.00 94 1017.3
20260508021229 7 77 0.0 0.0 0.00 0.00 0.00 94 1017.4
20260508021129 7 86 1.6 0.0 0.00 0.00 0.00 94 1017.4
20260508021029 7 113 0.0 0.0 0.00 0.00 0.00 94 1017.3
20260508020929 7 290 0.0 0.0 0.00 0.00 0.00 94 1017.4
20260508020829 7 197 0.0 0.0 0.00 0.00 0.00 94 1017.3
20260508020728 7 31 0.0 0.0 0.00 0.00 0.00 94 1017.4
20260508020628 7 356 1.6 0.0 0.00 0.00 0.00 94 1017.4
20260508020528 7 89 0.0 0.0 0.00 0.00 0.00 94 1017.3
20260508020428 7 106 0.0 0.0 0.00 0.00 0.00 94 1017.3
20260508020328 7 106 1.6 0.0 0.00 0.00 0.00 94 1017.4
20260508020228 7 228 0.0 0.0 0.00 0.00 0.00 94 1017.4
20260508020128 7 63 1.6 0.0 0.00 0.00 0.00 94 1017.3
20260508020028 7 89 0.0 0.0 0.00 0.00 0.00 94 1017.4
20260508015928 7 320 1.6 0.0 0.00 0.00 0.00 94 1017.4
20260508015828 7 18 1.6 0.0 0.00 0.00 0.00 94 1017.4
20260508015728 7 145 0.0 0.0 0.00 0.00 0.00 94 1017.4
20260508015628 7 318 0.0 0.0 0.00 0.00 0.00 94 1017.4
20260508015528 7 145 0.0 0.0 0.00 0.00 0.00 94 1017.4
20260508015428 7 269 0.0 0.0 0.00 0.00 0.00 94 1017.4
20260508015328 7 117 0.0 0.0 0.00 0.00 0.00 94 1017.5
20260508015228 7 118 0.0 0.0 0.00 0.00 0.00 94 1017.4
20260508015127 7 89 0.0 0.0 0.00 0.00 0.00 94 1017.4
20260508015027 7 37 0.0 0.0 0.00 0.00 0.00 94 1017.3
20260508014927 7 37 0.0 0.0 0.00 0.00 0.00 94 1017.4
20260508014827 7 291 0.0 0.0 0.00 0.00 0.00 94 1017.4
20260508014727 7 291 0.0 0.0 0.00 0.00 0.00 94 1017.4
20260508014627 7 117 0.0 0.0 0.00 0.00 0.00 94 1017.4
20260508014527 7 62 0.0 0.0 0.00 0.00 0.00 94 1017.4
20260508014427 7 98 0.0 0.0 0.00 0.00 0.00 94 1017.4
20260508014327 7 205 0.0 0.0 0.00 0.00 0.00 94 1017.4
20260508014227 7 62 0.0 0.0 0.00 0.00 0.00 94 1017.5
20260508014127 7 23 0.0 0.0 0.00 0.00 0.00 94 1017.4
20260508014027 7 309 0.0 0.0 0.00 0.00 0.00 94 1017.4
20260508013927 7 135 0.0 0.0 0.00 0.00 0.00 94 1017.5
20260508013827 7 107 0.0 0.0 0.00 0.00 0.00 94 1017.4
20260508013727 7 169 0.0 0.0 0.00 0.00 0.00 94 1017.3
20260508013627 7 147 0.0 0.0 0.00 0.00 0.00 94 1017.4
20260508013526 7 156 0.0 0.0 0.00 0.00 0.00 94 1017.4
20260508013426 7 2 1.6 0.0 0.00 0.00 0.00 94 1017.4
20260508013326 7 62 0.0 0.0 0.00 0.00 0.00 94 1017.4
20260508013226 7 37 1.6 0.0 0.00 0.00 0.00 94 1017.4
20260508013126 7 25 1.6 0.0 0.00 0.00 0.00 94 1017.5
20260508013026 7 214 0.0 0.0 0.00 0.00 0.00 94 1017.4
20260508012926 7 131 0.0 0.0 0.00 0.00 0.00 94 1017.4
20260508012826 7 126 0.0 0.0 0.00 0.00 0.00 94 1017.3
20260508012726 7 62 0.0 0.0 0.00 0.00 0.00 94 1017.4
20260508012626 7 51 1.6 0.0 0.00 0.00 0.00 94 1017.3
20260508012526 7 129 0.0 0.0 0.00 0.00 0.00 94 1017.5
20260508012426 7 339 1.6 0.0 0.00 0.00 0.00 94 1017.4
20260508012326 7 117 1.6 0.0 0.00 0.00 0.00 94 1017.4
20260508012226 7 331 1.6 0.0 0.00 0.00 0.00 94 1017.4
20260508012126 7 283 0.0 0.0 0.00 0.00 0.00 94 1017.4
20260508012026 7 269 0.0 0.0 0.00 0.00 0.00 94 1017.4
20260508011925 7 329 0.0 0.0 0.00 0.00 0.00 94 1017.4
20260508011825 7 329 0.0 0.0 0.00 0.00 0.00 94 1017.4
20260508011725 7 329 0.0 0.0 0.00 0.00 0.00 94 1017.4
20260508011625 7 329 0.0 0.0 0.00 0.00 0.00 94 1017.4
20260508011525 7 306 1.6 0.0 0.00 0.00 0.00 94 1017.5
20260508011425 7 88 1.6 0.0 0.00 0.00 0.00 94 1017.4
20260508011325 7 283 0.0 0.0 0.00 0.00 0.00 94 1017.5
20260508011225 7 242 0.0 0.0 0.00 0.00 0.00 94 1017.4
20260508011125 7 242 0.0 0.0 0.00 0.00 0.00 94 1017.4
20260508011025 7 309 0.0 0.0 0.00 0.00 0.00 94 1017.3
20260508010925 7 309 0.0 0.0 0.00 0.00 0.00 94 1017.4
20260508010825 7 309 0.0 0.0 0.00 0.00 0.00 94 1017.4
20260508010725 7 269 1.6 0.0 0.00 0.00 0.00 94 1017.4
20260508010625 7 50 0.0 0.0 0.00 0.00 0.00 94 1017.4
20260508010525 7 50 0.0 0.0 0.00 0.00 0.00 94 1017.4
20260508010425 7 50 0.0 0.0 0.00 0.00 0.00 94 1017.4
20260508010325 7 55 0.0 0.0 0.00 0.00 0.00 94 1017.5
20260508010224 7 29 0.0 0.0 0.00 0.00 0.00 94 1017.5
20260508010124 7 62 0.0 0.0 0.00 0.00 0.00 94 1017.5
20260508010024 7 62 0.0 0.0 0.00 0.00 0.00 94 1017.5
20260508005924 7 62 0.0 0.0 0.00 0.00 0.00 94 1017.5
20260508005824 7 62 0.0 0.0 0.00 0.00 0.00 94 1017.4
20260508005724 7 62 0.0 0.0 0.00 0.00 0.00 94 1017.5
20260508005624 7 62 0.0 0.0 0.00 0.00 0.00 94 1017.5
20260508005524 7 62 0.0 0.0 0.00 0.00 0.00 94 1017.4
20260508005424 7 62 0.0 0.0 0.00 0.00 0.00 94 1017.5
20260508005324 7 62 0.0 0.0 0.00 0.00 0.00 94 1017.5
20260508005224 7 62 0.0 0.0 0.00 0.00 0.00 94 1017.4
20260508005124 7 62 0.0 0.0 0.00 0.00 0.00 94 1017.5
20260508005024 7 124 1.6 0.0 0.00 0.00 0.00 94 1017.5
20260508004924 7 235 0.0 0.0 0.00 0.00 0.00 94 1017.4
20260508004824 7 239 1.6 0.0 0.00 0.00 0.00 94 1017.4
20260508004724 7 293 0.0 0.0 0.00 0.00 0.00 94 1017.5
20260508004623 7 315 0.0 0.0 0.00 0.00 0.00 94 1017.6
20260508004523 7 315 0.0 0.0 0.00 0.00 0.00 94 1017.4
20260508004423 7 295 1.6 0.0 0.00 0.00 0.00 94 1017.5
20260508004323 7 269 1.6 0.0 0.00 0.00 0.00 94 1017.5
20260508004223 7 168 0.0 0.0 0.00 0.00 0.00 94 1017.6
20260508004123 7 37 0.0 0.0 0.00 0.00 0.00 94 1017.6
20260508004023 7 37 0.0 0.0 0.00 0.00 0.00 94 1017.5
20260508003923 7 37 0.0 0.0 0.00 0.00 0.00 94 1017.5
20260508003823 7 37 0.0 0.0 0.00 0.00 0.00 94 1017.5
20260508003723 7 37 0.0 0.0 0.00 0.00 0.00 94 1017.6
20260508003623 7 224 0.0 0.0 0.00 0.00 0.00 94 1017.5
20260508003523 7 224 0.0 0.0 0.00 0.00 0.00 94 1017.4
20260508003423 7 224 0.0 0.0 0.00 0.00 0.00 94 1017.5
20260508003323 7 76 0.0 0.0 0.00 0.00 0.00 94 1017.5
20260508003223 7 224 0.0 0.0 0.00 0.00 0.00 94 1017.5
20260508003123 7 282 1.6 0.0 0.00 0.00 0.00 94 1017.5
20260508003022 7 31 0.0 0.0 0.00 0.00 0.00 95 1017.5
20260508002922 7 279 1.6 0.0 0.00 0.00 0.00 95 1017.4
20260508002822 7 269 0.0 0.0 0.00 0.00 0.00 95 1017.5
20260508002722 7 217 0.0 0.0 0.00 0.00 0.00 95 1017.6
20260508002622 7 261 0.0 0.0 0.00 0.00 0.00 95 1017.5
20260508002522 7 217 0.0 0.0 0.00 0.00 0.00 95 1017.5
20260508002422 7 55 0.0 0.0 0.00 0.00 0.00 95 1017.4
20260508002322 7 323 0.0 0.0 0.00 0.00 0.00 95 1017.4
20260508002222 7 60 0.0 0.0 0.00 0.00 0.00 95 1017.4
20260508002122 7 69 0.0 0.0 0.00 0.00 0.00 95 1017.4
20260508002022 7 69 1.6 0.0 0.00 0.00 0.00 95 1017.5
20260508001922 7 66 1.6 0.0 0.00 0.00 0.00 95 1017.3
20260508001822 7 76 0.0 0.0 0.00 0.00 0.00 95 1017.4
20260508001722 7 76 0.0 0.0 0.00 0.00 0.00 95 1017.4
20260508001622 7 82 1.6 0.0 0.00 0.00 0.00 95 1017.4
20260508001522 7 91 1.6 0.0 0.00 0.00 0.00 95 1017.4
20260508001421 7 160 0.0 0.0 0.00 0.00 0.00 95 1017.4
20260508001321 7 233 0.0 0.0 0.00 0.00 0.00 95 1017.3
20260508001221 7 287 0.0 0.0 0.00 0.00 0.00 95 1017.4
20260508001121 7 296 0.0 0.0 0.00 0.00 0.00 95 1017.3
20260508001021 7 0 0.0 0.0 0.00 0.00 0.00 95 1017.3
20260508000921 7 269 0.0 0.0 0.00 0.00 0.00 95 1017.4
20260508000821 7 275 0.0 0.0 0.00 0.00 0.00 95 1017.3
20260508000721 7 288 0.0 0.0 0.00 0.00 0.00 95 1017.5
20260508000621 7 81 0.0 0.0 0.00 0.00 0.00 95 1017.4
20260508000521 7 290 1.6 0.0 0.00 0.00 0.00 95 1017.5
20260508000421 7 89 0.0 0.0 0.00 0.00 0.00 95 1017.4
20260508000321 7 110 0.0 0.0 0.00 0.00 0.00 95 1017.4
20260508000221 7 5 0.0 0.0 0.00 0.00 0.00 95 1017.5
20260508000121 7 50 0.0 0.0 0.00 0.00 0.00 95 1017.5
20260508000021 7 63 1.6 0.0 0.00 0.00 0.00 95 1017.5
20260507235920 7 117 0.0 0.0 0.00 0.00 0.00 95 1017.5
20260507235820 7 76 0.0 0.0 0.00 0.00 0.00 95 1017.5
20260507235720 7 55 0.0 0.0 0.00 0.00 0.00 95 1017.5
20260507235620 7 55 0.0 0.0 0.00 0.00 0.00 95 1017.4
20260507235520 7 102 0.0 0.0 0.00 0.00 0.00 95 1017.5
20260507235420 7 269 0.0 0.0 0.00 0.00 0.00 95 1017.5
20260507235320 7 176 1.6 0.0 0.00 0.00 0.00 95 1017.5
20260507235220 7 276 1.6 0.0 0.00 0.00 0.00 95 1017.5
20260507235120 7 292 1.6 0.0 0.00 0.00 0.00 95 1017.5
20260507235020 7 246 0.0 0.0 0.00 0.00 0.00 95 1017.4
20260507234920 7 246 1.6 0.0 0.00 0.00 0.00 95 1017.5
20260507234820 7 19 0.0 0.0 0.00 0.00 0.00 95 1017.4
20260507234720 7 230 0.0 0.0 0.00 0.00 0.00 95 1017.4
20260507234620 7 257 0.0 0.0 0.00 0.00 0.00 96 1017.5
20260507234520 7 276 0.0 0.0 0.00 0.00 0.00 96 1017.5
20260507234420 7 283 0.0 0.0 0.00 0.00 0.00 96 1017.4
20260507234320 7 283 0.0 0.0 0.00 0.00 0.00 96 1017.5
20260507234220 7 288 0.0 0.0 0.00 0.00 0.00 96 1017.4
20260507234119 7 50 0.0 0.0 0.00 0.00 0.00 96 1017.5
20260507234019 7 76 0.0 0.0 0.00 0.00 0.00 96 1017.5
20260507233919 7 76 0.0 0.0 0.00 0.00 0.00 96 1017.5
20260507233819 7 89 0.0 0.0 0.00 0.00 0.00 96 1017.4
20260507233719 7 51 1.6 0.0 0.00 0.00 0.00 96 1017.6
20260507233619 7 256 0.0 0.0 0.00 0.00 0.00 96 1017.5
20260507233519 7 256 0.0 0.0 0.00 0.00 0.00 96 1017.6
20260507233419 7 142 0.0 0.0 0.00 0.00 0.00 96 1017.6
20260507233319 7 62 0.0 0.0 0.00 0.00 0.00 96 1017.6
20260507233219 7 103 0.0 0.0 0.00 0.00 0.00 96 1017.5
20260507233119 7 76 0.0 0.0 0.00 0.00 0.00 96 1017.5
20260507233019 7 294 1.6 0.0 0.00 0.00 0.00 96 1017.5
20260507232919 7 243 0.0 0.0 0.00 0.00 0.00 96 1017.6
20260507232819 7 269 0.0 0.0 0.00 0.00 0.00 96 1017.6
20260507232719 7 277 0.0 0.0 0.00 0.00 0.00 96 1017.5
20260507232619 7 306 0.0 0.0 0.00 0.00 0.00 96 1017.5
20260507232518 7 306 0.0 0.0 0.00 0.00 0.00 96 1017.5
20260507232418 7 306 0.0 0.0 0.00 0.00 0.00 96 1017.4
20260507232318 7 306 0.0 0.0 0.00 0.00 0.00 96 1017.5
20260507232218 7 230 0.0 0.0 0.00 0.00 0.00 96 1017.5
20260507232118 7 230 0.0 0.0 0.00 0.00 0.00 96 1017.5
20260507232018 7 230 0.0 0.0 0.00 0.00 0.00 96 1017.5
20260507231918 7 262 0.0 0.0 0.00 0.00 0.00 96 1017.4
20260507231818 7 321 0.0 0.0 0.00 0.00 0.00 96 1017.5
20260507231718 7 321 1.6 0.0 0.00 0.00 0.00 96 1017.4
20260507231618 7 55 0.0 0.0 0.00 0.00 0.00 96 1017.5
20260507231518 7 321 0.0 0.0 0.00 0.00 0.00 96 1017.5
20260507231418 7 321 0.0 0.0 0.00 0.00 0.00 96 1017.5
20260507231318 7 321 0.0 0.0 0.00 0.00 0.00 96 1017.5
20260507231218 7 103 0.0 0.0 0.00 0.00 0.00 95 1017.5
20260507231118 7 352 0.0 0.0 0.00 0.00 0.00 96 1017.6
20260507231018 7 315 0.0 0.0 0.00 0.00 0.00 95 1017.5
20260507230918 7 315 0.0 0.0 0.00 0.00 0.00 95 1017.6
20260507230817 7 315 0.0 0.0 0.00 0.00 0.00 96 1017.6
20260507230717 7 205 0.0 0.0 0.00 0.00 0.00 95 1017.5
20260507230617 7 50 0.0 0.0 0.00 0.00 0.00 95 1017.5
20260507230517 7 35 1.6 0.0 0.00 0.00 0.00 95 1017.6
20260507230417 7 301 0.0 0.0 0.00 0.00 0.00 95 1017.7
20260507230317 7 77 0.0 0.0 0.00 0.00 0.00 95 1017.6
20260507230217 7 77 0.0 0.0 0.00 0.00 0.00 95 1017.6
20260507230117 7 77 0.0 0.0 0.00 0.00 0.00 95 1017.7
20260507230017 7 269 0.0 0.0 0.00 0.00 0.00 95 1017.6
20260507225917 7 269 0.0 0.0 0.00 0.00 0.00 95 1017.6
20260507225817 7 269 0.0 0.0 0.00 0.00 0.00 95 1017.6
20260507225717 7 269 0.0 0.0 0.00 0.00 0.00 95 1017.5
20260507225617 7 50 0.0 0.0 0.00 0.00 0.00 95 1017.5
20260507225517 7 50 0.0 0.0 0.00 0.00 0.00 95 1017.4
20260507225417 7 50 0.0 0.0 0.00 0.00 0.00 95 1017.5
20260507225317 7 50 0.0 0.0 0.00 0.00 0.00 95 1017.4
20260507225216 7 50 0.0 0.0 0.00 0.00 0.00 95 1017.4
20260507225116 7 293 0.0 0.0 0.00 0.00 0.00 95 1017.5
20260507225016 7 293 0.0 0.0 0.00 0.00 0.00 95 1017.5
20260507224916 7 124 0.0 0.0 0.00 0.00 0.00 95 1017.5
20260507224816 7 124 0.0 0.0 0.00 0.00 0.00 95 1017.5
20260507224716 7 124 0.0 0.0 0.00 0.00 0.00 95 1017.5
20260507224616 7 150 1.6 0.0 0.00 0.00 0.00 95 1017.5
20260507224516 7 75 1.6 0.0 0.00 0.00 0.00 95 1017.4
20260507224416 7 98 1.6 0.0 0.00 0.00 0.00 95 1017.4
20260507224316 7 315 0.0 0.0 0.00 0.00 0.00 95 1017.4
20260507224216 7 315 0.0 0.0 0.00 0.00 0.00 95 1017.4
20260507224116 7 315 0.0 0.0 0.00 0.00 0.00 95 1017.4
20260507224016 7 336 0.0 0.0 0.00 0.00 0.00 95 1017.4
20260507223916 7 191 1.6 0.0 0.00 0.00 0.00 95 1017.4
20260507223816 7 55 0.0 0.0 0.00 0.00 0.00 95 1017.5
20260507223716 7 103 0.0 0.0 0.00 0.00 0.00 95 1017.3
20260507223615 7 103 0.0 0.0 0.00 0.00 0.00 95 1017.5
20260507223515 7 113 0.0 0.0 0.00 0.00 0.00 95 1017.5
20260507223415 7 113 0.0 0.0 0.00 0.00 0.00 95 1017.4
20260507223315 7 113 0.0 0.0 0.00 0.00 0.00 95 1017.4
20260507223215 7 113 0.0 0.0 0.00 0.00 0.00 95 1017.4
20260507223115 7 113 0.0 0.0 0.00 0.00 0.00 95 1017.5
20260507223015 7 113 0.0 0.0 0.00 0.00 0.00 95 1017.5
20260507222915 7 113 0.0 0.0 0.00 0.00 0.00 95 1017.4
20260507222815 7 71 0.0 0.0 0.00 0.00 0.00 95 1017.4
20260507222715 7 53 0.0 0.0 0.00 0.00 0.00 95 1017.4
20260507222615 7 89 0.0 0.0 0.00 0.00 0.00 95 1017.4
20260507222515 7 76 0.0 0.0 0.00 0.00 0.00 95 1017.4
20260507222415 7 62 0.0 0.0 0.00 0.00 0.00 95 1017.4
20260507222315 7 62 0.0 0.0 0.00 0.00 0.00 94 1017.4
20260507222215 7 62 0.0 0.0 0.00 0.00 0.00 94 1017.5
20260507222115 7 68 1.6 0.0 0.00 0.00 0.00 94 1017.5
20260507222015 7 64 0.0 0.0 0.00 0.00 0.00 94 1017.4
20260507221914 7 242 0.0 0.0 0.00 0.00 0.00 94 1017.5
20260507221814 7 242 0.0 0.0 0.00 0.00 0.00 94 1017.5
20260507221714 7 242 0.0 0.0 0.00 0.00 0.00 94 1017.4
20260507221614 7 242 0.0 0.0 0.00 0.00 0.00 94 1017.4
20260507221514 7 247 1.6 0.0 0.00 0.00 0.00 94 1017.4
20260507221414 7 11 0.0 0.0 0.00 0.00 0.00 94 1017.3
20260507221314 7 325 0.0 0.0 0.00 0.00 0.00 94 1017.3
20260507221214 7 315 0.0 0.0 0.00 0.00 0.00 94 1017.4
20260507221114 7 62 0.0 0.0 0.00 0.00 0.00 94 1017.4
20260507221014 7 62 0.0 0.0 0.00 0.00 0.00 94 1017.3
20260507220914 7 89 0.0 0.0 0.00 0.00 0.00 94 1017.3
20260507220814 7 89 0.0 0.0 0.00 0.00 0.00 94 1017.2
20260507220714 7 117 0.0 0.0 0.00 0.00 0.00 93 1017.2
20260507220614 7 22 0.0 0.0 0.00 0.00 0.00 93 1017.3
20260507220514 7 22 0.0 0.0 0.00 0.00 0.00 93 1017.3
20260507220414 7 22 0.0 0.0 0.00 0.00 0.00 93 1017.3
20260507220314 7 62 0.0 0.0 0.00 0.00 0.00 93 1017.4
20260507220213 7 62 0.0 0.0 0.00 0.00 0.00 93 1017.3
20260507220113 7 62 0.0 0.0 0.00 0.00 0.00 93 1017.4
20260507220013 7 62 0.0 0.0 0.00 0.00 0.00 93 1017.4
20260507215913 7 62 0.0 0.0 0.00 0.00 0.00 93 1017.4
20260507215813 7 62 0.0 0.0 0.00 0.00 0.00 93 1017.3
20260507215713 7 62 0.0 0.0 0.00 0.00 0.00 93 1017.3
20260507215613 7 133 1.6 0.0 0.00 0.00 0.00 94 1017.3
20260507215513 7 45 1.6 0.0 0.00 0.00 0.00 93 1017.4
20260507215413 7 309 0.0 0.0 0.00 0.00 0.00 93 1017.4
20260507215313 7 113 0.0 0.0 0.00 0.00 0.00 93 1017.4
20260507215213 7 32 0.0 0.0 0.00 0.00 0.00 93 1017.4
20260507215113 7 22 0.0 0.0 0.00 0.00 0.00 93 1017.4
20260507215013 7 33 1.6 0.0 0.00 0.00 0.00 93 1017.4
20260507214913 7 6 0.0 0.0 0.00 0.00 0.00 93 1017.4
20260507214813 7 44 1.6 0.0 0.00 0.00 0.00 93 1017.4
20260507214713 7 297 1.6 0.0 0.00 0.00 0.00 93 1017.4
20260507214612 7 52 1.6 0.0 0.00 0.00 0.00 93 1017.4
20260507214512 7 83 1.6 0.0 0.00 0.00 0.00 93 1017.4
20260507214412 7 283 1.6 0.0 0.00 0.00 0.00 93 1017.4
20260507214312 7 77 1.6 0.0 0.00 0.00 0.00 93 1017.5
20260507214212 7 113 1.6 0.0 0.00 0.00 0.00 93 1017.4
20260507214112 7 55 0.0 0.0 0.00 0.00 0.00 93 1017.4
20260507214012 7 96 1.6 0.0 0.00 0.00 0.00 93 1017.4
20260507213912 7 304 0.0 0.0 0.00 0.00 0.00 93 1017.3
20260507213812 7 308 1.6 0.0 0.00 0.00 0.00 93 1017.5
20260507213712 7 307 1.6 0.0 0.00 0.00 0.00 93 1017.3
20260507213612 7 296 0.0 0.0 0.00 0.00 0.00 93 1017.4
20260507213512 7 296 0.0 0.0 0.00 0.00 0.00 93 1017.4
20260507213412 7 173 0.0 0.0 0.00 0.00 0.00 93 1017.4
20260507213312 7 174 0.0 0.0 0.00 0.00 0.00 93 1017.4
20260507213212 7 257 0.0 0.0 0.00 0.00 0.00 93 1017.5
20260507213112 7 49 0.0 0.0 0.00 0.00 0.00 93 1017.3
20260507213011 7 66 0.0 0.0 0.00 0.00 0.00 93 1017.5
20260507212911 7 157 0.0 0.0 0.00 0.00 0.00 93 1017.4
20260507212811 7 119 0.0 0.0 0.00 0.00 0.00 93 1017.4
20260507212711 7 108 1.6 0.0 0.00 0.00 0.00 93 1017.5
20260507212611 7 76 1.6 0.0 0.00 0.00 0.00 93 1017.3
20260507212511 7 283 3.2 0.0 0.00 0.00 0.00 93 1017.4
20260507212411 7 303 1.6 0.0 0.00 0.00 0.00 93 1017.4
20260507212311 7 124 0.0 0.0 0.00 0.00 0.00 93 1017.3
20260507212211 7 124 0.0 0.0 0.00 0.00 0.00 93 1017.4
20260507212111 7 354 0.0 0.0 0.00 0.00 0.00 93 1017.4
20260507212011 7 246 0.0 0.0 0.00 0.00 0.00 93 1017.3
20260507211911 7 245 0.0 0.0 0.00 0.00 0.00 93 1017.3
20260507211811 7 245 0.0 0.0 0.00 0.00 0.00 93 1017.4
20260507211711 7 245 0.0 0.0 0.00 0.00 0.00 93 1017.2
20260507211611 7 245 0.0 0.0 0.00 0.00 0.00 93 1017.2
20260507211511 7 245 0.0 0.0 0.00 0.00 0.00 93 1017.3
20260507211411 7 117 0.0 0.0 0.00 0.00 0.00 93 1017.4
20260507211310 7 117 0.0 0.0 0.00 0.00 0.00 93 1017.3
20260507211210 7 117 0.0 0.0 0.00 0.00 0.00 93 1017.3
20260507211111 7 117 0.0 0.0 0.00 0.00 0.00 93 1017.3
20260507211010 7 117 0.0 0.0 0.00 0.00 0.00 93 1017.3
20260507210910 7 322 0.0 0.0 0.00 0.00 0.00 93 1017.3
20260507210810 7 322 0.0 0.0 0.00 0.00 0.00 93 1017.2
20260507210710 7 330 1.6 0.0 0.00 0.00 0.00 93 1017.2
20260507210610 7 38 0.0 0.0 0.00 0.00 0.00 93 1017.2
20260507210510 7 44 0.0 0.0 0.00 0.00 0.00 93 1017.3
20260507210410 7 62 0.0 0.0 0.00 0.00 0.00 93 1017.2
20260507210310 7 2 0.0 0.0 0.00 0.00 0.00 93 1017.2
20260507210210 7 37 0.0 0.0 0.00 0.00 0.00 93 1017.3
20260507210110 7 37 0.0 0.0 0.00 0.00 0.00 93 1017.2
20260507210010 7 37 1.6 0.0 0.00 0.00 0.00 93 1017.2
20260507205910 7 237 0.0 0.0 0.00 0.00 0.00 93 1017.2
20260507205810 7 237 0.0 0.0 0.00 0.00 0.00 93 1017.3
20260507205709 7 237 0.0 0.0 0.00 0.00 0.00 92 1017.2
20260507205609 7 299 1.6 0.0 0.00 0.00 0.00 92 1017.2
20260507205509 7 53 0.0 0.0 0.00 0.00 0.00 92 1017.2
20260507205409 7 129 0.0 0.0 0.00 0.00 0.00 92 1017.3
20260507205309 7 117 0.0 0.0 0.00 0.00 0.00 92 1017.2
20260507205209 7 52 0.0 0.0 0.00 0.00 0.00 92 1017.3
20260507205109 7 48 1.6 0.0 0.00 0.00 0.00 92 1017.2
20260507205009 7 6 0.0 0.0 0.00 0.00 0.00 92 1017.3
20260507204909 7 217 0.0 0.0 0.00 0.00 0.00 92 1017.2
20260507204809 7 217 0.0 0.0 0.00 0.00 0.00 92 1017.2
20260507204709 7 315 0.0 0.0 0.00 0.00 0.00 92 1017.3
20260507204609 7 75 0.0 0.0 0.00 0.00 0.00 92 1017.2
20260507204509 7 88 0.0 0.0 0.00 0.00 0.00 92 1017.2
20260507204409 7 77 0.0 0.0 0.00 0.00 0.00 92 1017.2
20260507204309 7 98 0.0 0.0 0.00 0.00 0.00 92 1017.2
20260507204208 7 106 1.6 0.0 0.00 0.00 0.00 92 1017.1
20260507204108 7 256 0.0 0.0 0.00 0.00 0.00 92 1017.1
20260507204008 7 50 0.0 0.0 0.00 0.00 0.00 92 1017.2
20260507203908 7 50 0.0 0.0 0.00 0.00 0.00 92 1017.1
20260507203808 7 230 0.0 0.0 0.00 0.00 0.00 92 1017.1
20260507203708 7 174 0.0 0.0 0.00 0.00 0.00 92 1017.2
20260507203608 7 62 0.0 0.0 0.00 0.00 0.00 92 1017.1
20260507203508 7 62 0.0 0.0 0.00 0.00 0.00 92 1017.1
20260507203408 7 62 0.0 0.0 0.00 0.00 0.00 92 1017.1
20260507203308 8 62 0.0 0.0 0.00 0.00 0.00 92 1017.2
20260507203208 8 107 0.0 0.0 0.00 0.00 0.00 92 1017.1
20260507203108 8 107 0.0 0.0 0.00 0.00 0.00 92 1017.0
20260507203008 8 31 0.0 0.0 0.00 0.00 0.00 92 1017.1
20260507202908 8 309 0.0 0.0 0.00 0.00 0.00 92 1017.1
20260507202808 8 224 0.0 0.0 0.00 0.00 0.00 92 1017.1
20260507202708 8 321 0.0 0.0 0.00 0.00 0.00 92 1017.0
20260507202608 8 269 1.6 0.0 0.00 0.00 0.00 92 1017.1
20260507202507 8 269 0.0 0.0 0.00 0.00 0.00 92 1017.0
20260507202407 8 269 0.0 0.0 0.00 0.00 0.00 92 1016.8
20260507202307 8 278 0.0 0.0 0.00 0.00 0.00 92 1016.8
20260507202207 8 62 0.0 0.0 0.00 0.00 0.00 92 1017.0
20260507202107 8 53 0.0 0.0 0.00 0.00 0.00 92 1016.8
20260507202007 8 69 0.0 0.0 0.00 0.00 0.00 92 1016.8
20260507201907 8 54 1.6 0.0 0.00 0.00 0.00 92 1017.0
20260507201807 8 55 0.0 0.0 0.00 0.00 0.00 91 1017.0
20260507201707 8 42 1.6 0.0 0.00 0.00 0.00 92 1016.8
20260507201607 8 76 0.0 0.0 0.00 0.00 0.00 92 1016.8
20260507201507 8 42 1.6 0.0 0.00 0.00 0.00 92 1016.8
20260507201407 8 94 1.6 0.0 0.00 0.00 0.00 92 1016.8
20260507201307 8 68 1.6 0.0 0.00 0.00 0.00 92 1016.8
20260507201207 8 68 0.0 0.0 0.00 0.00 0.00 92 1016.8
20260507201107 8 322 0.0 0.0 0.00 0.00 0.00 92 1016.8
20260507201007 8 22 0.0 0.0 0.00 0.00 0.00 92 1016.8
20260507200906 8 230 0.0 0.0 0.00 0.00 0.00 92 1016.8
20260507200806 8 224 0.0 0.0 0.00 0.00 0.00 92 1016.8
20260507200706 8 269 1.6 0.0 0.00 0.00 0.00 92 1016.7
20260507200606 8 32 0.0 0.0 0.00 0.00 0.00 92 1016.8
20260507200506 8 202 0.0 0.0 0.00 0.00 0.00 92 1016.6
20260507200406 8 23 3.2 0.0 0.00 0.00 0.00 92 1016.7
20260507200306 8 6 1.6 0.0 0.00 0.00 0.00 92 1016.7
20260507200206 8 60 0.0 0.0 0.00 0.00 0.00 92 1016.7
20260507200106 8 54 0.0 0.0 0.00 0.00 0.00 92 1016.6
20260507200006 8 66 0.0 0.0 0.00 0.00 0.00 91 1016.7
20260507195906 8 83 1.6 0.0 0.00 0.00 0.00 92 1016.7
20260507195806 8 62 0.0 0.0 0.00 0.00 0.00 92 1016.7
20260507195706 8 44 0.0 0.0 0.00 0.00 0.00 92 1016.7
20260507195606 8 89 0.0 0.0 0.00 0.00 0.00 92 1016.6
20260507195506 8 322 0.0 0.0 0.00 0.00 0.00 92 1016.6
20260507195406 8 150 0.0 0.0 0.00 0.00 0.00 92 1016.6
20260507195306 8 243 0.0 0.0 0.00 0.00 0.00 92 1016.6
20260507195205 8 159 1.6 0.0 0.00 0.00 0.00 92 1016.6
20260507195105 8 304 0.0 0.0 0.00 0.00 0.00 91 1016.6
20260507195005 8 199 0.0 0.0 0.00 0.00 0.00 92 1016.5
20260507194905 8 323 1.6 0.0 0.00 0.00 0.00 92 1016.4
20260507194805 8 312 1.6 0.0 0.00 0.00 0.00 92 1016.5
20260507194705 8 0 1.6 0.0 0.00 0.00 0.00 91 1016.5
20260507194605 8 217 0.0 0.0 0.00 0.00 0.00 91 1016.4
20260507194505 8 224 0.0 0.0 0.00 0.00 0.00 91 1016.5
20260507194405 8 18 1.6 0.0 0.00 0.00 0.00 91 1016.4
20260507194305 8 246 0.0 0.0 0.00 0.00 0.00 91 1016.4
20260507194205 8 193 0.0 0.0 0.00 0.00 0.00 91 1016.4
20260507194105 8 212 0.0 0.0 0.00 0.00 0.00 91 1016.5
20260507194005 8 44 0.0 0.0 0.00 0.00 0.00 91 1016.5
20260507193905 8 124 0.0 0.0 0.00 0.00 0.00 91 1016.4
20260507193805 8 130 1.6 0.0 0.00 0.00 0.00 91 1016.4
20260507193705 8 47 0.0 0.0 0.00 0.00 0.00 91 1016.5
20260507193604 8 37 0.0 0.0 0.00 0.00 0.00 91 1016.5
20260507193504 8 37 0.0 0.0 0.00 0.00 0.00 91 1016.4
20260507193404 8 40 1.6 0.0 0.00 0.00 0.00 91 1016.5
20260507193304 8 281 1.6 0.0 0.00 0.00 0.00 91 1016.5
20260507193204 8 4 1.6 0.0 0.00 0.00 0.00 91 1016.4
20260507193104 8 225 1.6 0.0 0.00 0.00 0.00 91 1016.4
20260507193004 8 39 3.2 0.0 0.00 0.00 0.00 91 1016.4
20260507192904 8 242 0.0 0.0 0.00 0.00 0.00 90 1016.3
20260507192804 8 321 0.0 0.0 0.00 0.00 0.00 90 1016.4
20260507192704 8 327 1.6 0.0 0.00 0.00 0.00 90 1016.4
20260507192604 8 140 0.0 0.0 0.00 0.00 0.00 90 1016.4
20260507192504 8 51 1.6 0.0 0.00 0.00 0.00 90 1016.4
20260507192404 8 27 1.6 0.0 0.00 0.00 0.00 91 1016.4
20260507192306 8 93 0.0 0.0 0.00 0.00 0.00 90 1016.4
20260507192204 8 37 3.2 0.0 0.00 0.00 0.00 90 1016.4
20260507192104 8 123 1.6 0.0 0.00 0.00 0.00 90 1016.3
20260507192004 8 202 1.6 0.0 0.00 0.00 0.00 90 1016.3
20260507191903 8 301 1.6 0.0 0.00 0.00 0.00 90 1016.4
20260507191803 8 294 1.6 0.0 0.00 0.00 0.00 90 1016.3
20260507191703 8 229 1.6 0.0 0.00 0.00 0.00 90 1016.4
20260507191603 8 241 1.6 0.0 0.00 0.00 0.00 90 1016.4
20260507191503 8 309 0.0 0.0 0.00 0.00 0.00 90 1016.3
20260507191403 8 309 1.6 0.0 0.00 0.00 0.00 90 1016.3
20260507191303 8 25 1.6 0.0 0.00 0.00 0.00 90 1016.3
20260507191203 8 62 1.6 0.0 0.00 0.00 0.00 90 1016.4
20260507191103 8 10 1.6 0.0 0.00 0.00 0.00 90 1016.4
20260507191003 8 309 1.6 0.0 0.00 0.00 0.00 90 1016.4
20260507190903 8 7 1.6 0.0 0.00 0.00 0.00 90 1016.2
20260507190803 8 22 0.0 0.0 0.00 0.00 0.00 90 1016.3
20260507190703 8 126 1.6 0.0 0.00 0.00 0.00 90 1016.2
20260507190603 8 36 3.2 0.0 0.00 0.00 0.00 90 1016.2
20260507190503 8 331 1.6 0.0 0.00 0.00 0.00 90 1016.3
20260507190403 8 66 0.0 0.0 0.00 0.00 0.00 90 1016.3
20260507190303 8 324 1.6 0.0 0.00 0.00 0.00 90 1016.3
20260507190202 8 299 1.6 0.0 0.00 0.00 0.00 90 1016.3
20260507190004 8 353 1.6 0.0 0.00 0.00 0.00 90 1016.3
20260507185902 8 222 1.6 0.0 0.00 0.00 0.00 90 1016.2
20260507185802 8 245 1.6 0.0 0.00 0.00 0.00 90 1016.2
20260507185702 8 4 0.0 0.0 0.00 0.00 0.00 90 1016.2
20260507185602 8 201 1.6 0.0 0.00 0.00 0.00 90 1016.1
20260507185502 8 53 1.6 0.0 0.00 0.00 0.00 90 1016.1
20260507185402 8 308 1.6 0.0 0.00 0.00 0.00 90 1016.2
20260507185305 8 116 1.6 0.0 0.00 0.00 0.00 89 1015.9
20260507185202 8 223 1.6 0.0 0.00 0.00 0.00 89 1016.1
20260507185102 8 266 1.6 0.0 0.00 0.00 0.00 89 1016.2
20260507185002 8 321 0.0 0.0 0.00 0.00 0.00 89 1016.0
20260507184902 8 324 1.6 0.0 0.00 0.00 0.00 89 1016.2
20260507184802 8 124 1.6 0.0 0.00 0.00 0.00 89 1016.0
20260507184702 8 124 1.6 0.0 0.00 0.00 0.00 90 1016.1
20260507184601 8 136 0.0 0.0 0.00 0.00 0.00 90 1016.0
20260507184501 8 107 0.0 0.0 0.00 0.00 0.00 90 1016.0
20260507184401 8 296 0.0 0.0 0.00 0.00 0.00 90 1015.9
20260507184301 8 44 1.6 0.0 0.00 0.00 0.00 90 1016.0
20260507184201 8 67 1.6 0.0 0.00 0.00 0.00 90 1015.9
20260507184101 8 322 0.0 0.0 0.00 0.00 0.00 90 1015.8
20260507184001 8 336 0.0 0.0 0.00 0.00 0.00 91 1016.0
20260507183901 8 32 3.2 0.0 0.00 0.00 0.00 91 1015.9
20260507183801 8 31 0.0 0.0 0.00 0.00 0.00 91 1015.9
20260507183701 8 15 1.6 0.0 0.00 0.00 0.00 91 1015.9
20260507183601 8 62 0.0 0.0 0.00 0.00 0.00 91 1015.8
20260507183501 8 256 0.0 0.0 0.00 0.00 0.00 91 1015.9
20260507183401 8 113 1.6 0.0 0.00 0.00 0.00 91 1015.9
20260507183301 8 70 1.6 0.0 0.00 0.00 0.00 91 1015.9
20260507183201 8 207 0.0 0.0 0.00 0.00 0.00 91 1015.9
20260507183101 8 285 1.6 0.0 0.00 0.00 0.00 91 1015.8
20260507183000 8 296 1.6 0.0 0.00 0.00 0.00 91 1015.9
20260507182900 8 277 1.6 0.0 0.00 0.00 0.00 91 1015.9
20260507182800 8 53 0.0 0.0 0.00 0.00 0.00 91 1015.8
20260507182700 8 310 1.6 0.0 0.00 0.00 0.00 91 1015.8
20260507182600 8 113 0.0 0.0 0.00 0.00 0.00 91 1015.8
20260507182500 8 124 1.6 0.0 0.00 0.00 0.00 91 1015.8
20260507182400 8 66 0.0 0.0 0.00 0.00 0.00 91 1015.8
20260507182300 8 309 1.6 0.0 0.00 0.00 0.00 91 1015.9
20260507182200 8 322 0.0 0.0 0.00 0.00 0.00 91 1015.9
20260507182100 9 129 1.6 0.0 0.00 0.00 0.00 91 1015.8
20260507182000 9 29 1.6 0.0 0.00 0.00 0.00 91 1015.8
20260507181900 9 22 1.6 0.0 0.00 0.00 0.00 91 1015.8
20260507181800 9 154 1.6 0.0 0.00 0.00 0.00 91 1015.8
20260507181700 9 180 0.0 0.0 0.00 0.00 0.00 91 1015.8
20260507181600 9 297 1.6 0.0 0.00 0.00 0.00 91 1015.7
20260507181500 9 326 1.6 0.0 0.00 0.00 0.00 91 1015.8
20260507181400 9 301 0.0 0.0 0.00 0.00 0.00 91 1015.8
20260507181259 9 22 0.0 0.0 0.00 0.00 0.00 91 1015.7
20260507181159 9 314 1.6 0.0 0.00 0.00 0.00 91 1015.7
20260507181059 9 162 1.6 0.0 0.00 0.00 0.00 91 1015.6
20260507180959 9 69 1.6 0.0 0.00 0.00 0.00 91 1015.7
20260507180859 9 165 0.0 0.0 0.00 0.00 0.00 91 1015.7
20260507180759 9 21 1.6 0.0 0.00 0.00 0.00 90 1015.6
20260507180659 9 55 0.0 0.0 0.00 0.00 0.00 90 1015.7
20260507180559 9 306 1.6 0.0 0.00 0.00 0.00 91 1015.7
20260507180459 9 117 3.2 0.0 0.00 0.00 0.00 91 1015.6
20260507180359 9 307 0.0 0.0 0.00 0.00 0.00 90 1015.5
20260507180259 9 51 3.2 0.0 0.00 0.00 0.00 90 1015.6
20260507180159 9 182 1.6 0.0 0.00 0.00 0.00 90 1015.7
20260507180059 9 227 1.6 0.0 0.00 0.00 0.00 90 1015.6
20260507175959 9 212 0.0 0.0 0.00 0.00 0.00 90 1015.6
20260507175859 9 58 1.6 0.0 0.00 0.00 0.00 90 1015.6
20260507175759 9 151 0.0 0.0 0.00 0.00 0.00 90 1015.6
20260507175659 9 191 3.2 0.0 0.00 0.00 0.00 90 1015.4
20260507175558 9 114 1.6 0.0 0.00 0.00 0.00 90 1015.6
20260507175458 9 175 1.6 0.0 0.00 0.00 0.00 90 1015.5
20260507175358 9 144 0.0 0.0 0.00 0.00 0.00 90 1015.7
20260507175258 9 51 3.2 0.0 0.00 0.00 0.00 90 1015.6
20260507175158 9 215 1.6 0.0 0.00 0.00 0.00 90 1015.5
20260507175058 9 123 1.6 0.0 0.00 0.00 0.00 91 1015.5
20260507174958 9 31 3.2 0.0 0.00 0.00 0.00 91 1015.6
20260507174858 9 133 1.6 0.0 0.00 0.00 0.00 91 1015.5
20260507174758 9 125 0.0 0.0 0.00 0.00 0.00 91 1015.5
20260507174658 9 63 0.0 0.0 0.00 0.00 0.00 91 1015.5
20260507174558 9 159 0.0 0.0 0.00 0.00 0.00 91 1015.5
20260507174458 9 89 1.6 0.0 0.00 0.00 0.00 91 1015.6
20260507174358 9 207 1.6 0.0 0.00 0.00 0.00 92 1015.6
20260507174258 9 57 3.2 0.0 0.00 0.00 0.00 92 1015.5
20260507174158 9 70 0.0 0.0 0.00 0.00 0.00 92 1015.5
20260507174057 9 156 1.6 0.0 0.00 0.00 0.00 92 1015.5
20260507173957 9 139 0.0 0.0 0.00 0.00 0.00 92 1015.5
20260507173857 9 176 1.6 0.0 0.00 0.00 0.00 92 1015.5
20260507173757 9 154 0.0 0.0 0.00 0.00 0.00 92 1015.6
20260507173657 9 224 1.6 0.0 0.00 0.00 0.00 92 1015.5
20260507173557 9 269 1.6 0.0 0.00 0.00 0.00 92 1015.5
20260507173457 9 109 1.6 0.0 0.00 0.00 0.00 92 1015.5
20260507173357 9 37 1.6 0.0 0.00 0.00 0.00 92 1015.4
20260507173257 9 30 3.2 0.0 0.00 0.00 0.00 91 1015.6
20260507173157 9 84 1.6 0.0 0.00 0.00 0.00 91 1015.5
20260507173057 9 178 1.6 0.0 0.00 0.00 0.00 91 1015.4
20260507172957 9 252 3.2 0.0 0.00 0.00 0.00 91 1015.4
20260507172857 9 337 3.2 0.0 0.00 0.00 0.00 91 1015.5
20260507172757 9 208 1.6 0.0 0.00 0.00 0.00 91 1015.4
20260507172657 9 135 0.0 0.0 0.00 0.00 0.00 91 1015.4
20260507172557 9 110 1.6 0.0 0.00 0.00 0.00 90 1015.4
20260507172457 9 79 1.6 0.0 0.00 0.00 0.00 90 1015.3
20260507172356 9 221 1.6 0.0 0.00 0.00 0.00 90 1015.4
20260507172256 9 199 3.2 0.0 0.00 0.00 0.00 90 1015.4
20260507172156 9 217 1.6 0.0 0.00 0.00 0.00 90 1015.3
20260507172056 9 147 3.2 0.0 0.00 0.00 0.00 90 1015.3
20260507171956 9 172 0.0 0.0 0.00 0.00 0.00 90 1015.2
20260507171856 9 293 1.6 0.0 0.00 0.00 0.00 90 1015.3
20260507171756 9 294 1.6 0.0 0.00 0.00 0.00 90 1015.3
20260507171656 9 165 1.6 0.0 0.00 0.00 0.00 90 1015.2
20260507171556 9 173 1.6 0.0 0.00 0.00 0.00 90 1015.3
20260507171456 9 58 1.6 0.0 0.00 0.00 0.00 90 1015.1
20260507171356 9 102 1.6 0.0 0.00 0.00 0.00 90 1015.2
20260507171256 9 145 1.6 0.0 0.00 0.00 0.00 89 1015.2
20260507171156 9 242 3.2 0.0 0.00 0.00 0.00 89 1015.3
20260507171056 9 203 1.6 0.0 0.00 0.00 0.00 89 1015.2
20260507170956 9 184 1.6 0.0 0.00 0.00 0.00 89 1015.1
20260507170856 9 175 3.2 0.0 0.00 0.00 0.00 89 1015.2
20260507170755 9 146 3.2 0.0 0.00 0.00 0.00 89 1015.1
20260507170655 9 220 1.6 0.0 0.00 0.00 0.00 89 1015.1
20260507170555 9 173 1.6 0.0 0.00 0.00 0.00 89 1015.1
20260507170455 9 126 1.6 0.0 0.00 0.00 0.00 89 1015.1
20260507170355 9 133 1.6 0.0 0.00 0.00 0.00 89 1015.1
20260507170255 9 209 0.0 0.0 0.00 0.00 0.00 88 1015.1
20260507170155 9 216 1.6 0.0 0.00 0.00 0.00 88 1015.1
20260507170055 10 113 0.0 0.0 0.00 0.00 0.00 88 1015.2
20260507165955 10 219 4.8 0.0 0.00 0.00 0.00 88 1015.1
20260507165855 10 132 1.6 0.0 0.00 0.00 0.00 88 1015.0
20260507165755 10 213 3.2 0.0 0.00 0.00 0.00 88 1015.1
20260507165655 10 254 3.2 0.0 0.00 0.00 0.00 88 1015.0
20260507165555 10 250 3.2 0.0 0.00 0.00 0.00 87 1015.1
20260507165455 10 217 0.0 0.0 0.00 0.00 0.00 87 1015.0
20260507165355 10 346 4.8 0.0 0.00 0.00 0.00 87 1015.1
20260507165255 10 165 1.6 0.0 0.00 0.00 0.00 87 1014.9
20260507165154 10 132 1.6 0.0 0.00 0.00 0.00 87 1015.0
20260507165054 10 253 3.2 0.0 0.00 0.00 0.00 87 1015.1
20260507164954 10 232 3.2 0.0 0.00 0.00 0.00 87 1015.0
20260507164854 10 205 1.6 0.0 0.00 0.00 0.00 87 1015.0
20260507164754 10 197 1.6 0.0 0.00 0.00 0.00 87 1015.0
20260507164654 10 241 3.2 0.0 0.00 0.00 0.00 86 1015.1
20260507164554 10 131 3.2 0.0 0.00 0.00 0.00 86 1015.1
20260507164454 10 241 1.6 0.0 0.00 0.00 0.00 86 1015.0
20260507164354 10 232 1.6 0.0 0.00 0.00 0.00 86 1015.1
20260507164254 10 290 1.6 0.0 0.00 0.00 0.00 86 1015.1
20260507164154 10 285 1.6 0.0 0.00 0.00 0.00 85 1015.1
20260507164054 10 162 0.0 0.0 0.00 0.00 0.00 85 1015.0
20260507163954 10 204 1.6 0.0 0.00 0.00 0.00 85 1014.9
20260507163854 10 314 3.2 0.0 0.00 0.00 0.00 85 1015.0
20260507163754 10 230 0.0 0.0 0.00 0.00 0.00 85 1015.0
20260507163654 10 230 1.6 0.0 0.00 0.00 0.00 85 1015.0
20260507163554 10 316 0.0 0.0 0.00 0.00 0.00 85 1015.0
20260507163453 10 211 1.6 0.0 0.00 0.00 0.00 86 1014.9
20260507163353 10 64 0.0 0.0 0.00 0.00 0.00 85 1014.9
20260507163253 10 329 1.6 0.0 0.00 0.00 0.00 86 1014.9
20260507163153 10 36 1.6 0.0 0.00 0.00 0.00 85 1014.9
20260507163053 10 62 0.0 0.0 0.00 0.00 0.00 85 1014.9
20260507162953 10 315 1.6 0.0 0.00 0.00 0.00 86 1014.9
20260507162853 10 317 0.0 0.0 0.00 0.00 0.00 86 1014.8
20260507162753 10 69 1.6 0.0 0.00 0.00 0.00 86 1014.8
20260507162653 10 97 1.6 0.0 0.00 0.00 0.00 85 1014.9
20260507162553 10 209 1.6 0.0 0.00 0.00 0.00 85 1014.8
20260507162453 10 61 3.2 0.0 0.00 0.00 0.00 85 1014.9
20260507162353 10 4 3.2 0.0 0.00 0.00 0.00 85 1014.8
20260507162253 10 226 1.6 0.0 0.00 0.00 0.00 86 1014.8
20260507162153 10 13 0.0 0.0 0.00 0.00 0.00 86 1014.7
20260507162053 10 13 0.0 0.0 0.00 0.00 0.00 86 1014.7
20260507161953 10 13 0.0 0.0 0.00 0.00 0.00 86 1014.8
20260507161853 10 322 1.6 0.0 0.00 0.00 0.00 85 1014.8
20260507161752 10 89 0.0 0.0 0.00 0.00 0.00 86 1014.8
20260507161652 10 89 0.0 0.0 0.00 0.00 0.00 86 1014.7
20260507161552 10 245 1.6 0.0 0.00 0.00 0.00 86 1014.9
20260507161452 10 236 3.2 0.0 0.00 0.00 0.00 86 1014.8
20260507161352 10 98 0.0 0.0 0.00 0.00 0.00 86 1014.7
20260507161252 10 65 1.6 0.0 0.00 0.00 0.00 86 1014.8
20260507161152 10 130 0.0 0.0 0.00 0.00 0.00 86 1014.8
20260507161052 10 65 1.6 0.0 0.00 0.00 0.00 85 1014.8
20260507160952 10 301 1.6 0.0 0.00 0.00 0.00 85 1014.9
20260507160852 10 314 1.6 0.0 0.00 0.00 0.00 85 1014.8
20260507160752 10 333 0.0 0.0 0.00 0.00 0.00 85 1014.7
20260507160652 10 249 4.8 0.0 0.00 0.00 0.00 85 1014.9
20260507160552 10 89 3.2 0.0 0.00 0.00 0.00 85 1014.8
20260507160452 10 91 4.8 0.0 0.00 0.00 0.00 85 1014.7
20260507160352 10 88 1.6 0.0 0.00 0.00 0.00 86 1014.7
20260507160252 10 168 0.0 0.0 0.00 0.00 0.00 86 1014.8
20260507160151 10 297 0.0 0.0 0.00 0.00 0.00 86 1014.9
20260507160051 10 352 0.0 0.0 0.00 0.00 0.00 85 1014.7
20260507155951 10 162 1.6 0.0 0.00 0.00 0.00 86 1014.7
20260507155851 10 326 1.6 0.0 0.00 0.00 0.00 86 1014.7
20260507155751 10 293 3.2 0.0 0.00 0.00 0.00 86 1014.7
20260507155651 10 240 0.0 0.0 0.00 0.00 0.00 86 1014.7
20260507155551 10 279 1.6 0.0 0.00 0.00 0.00 86 1014.7
20260507155538 10 19 1.6 0.0 0.00 0.00 0.00 86 1014.6
20260507155351 10 38 0.0 0.0 0.00 0.00 0.00 85 1014.6
20260507155251 10 291 3.2 0.0 0.00 0.00 0.00 85 1014.6
20260507155151 10 171 1.6 0.0 0.00 0.00 0.00 86 1014.6
20260507155051 10 34 1.6 0.0 0.00 0.00 0.00 86 1014.7
20260507154951 10 17 1.6 0.0 0.00 0.00 0.00 86 1014.5
20260507154851 10 197 1.6 0.0 0.00 0.00 0.00 86 1014.5
20260507154751 10 212 3.2 0.0 0.00 0.00 0.00 86 1014.6
20260507154651 10 201 1.6 0.0 0.00 0.00 0.00 86 1014.6
20260507154551 10 98 3.2 0.0 0.00 0.00 0.00 86 1014.7
20260507154450 10 310 3.2 0.0 0.00 0.00 0.00 86 1014.6
20260507154350 10 227 1.6 0.0 0.00 0.00 0.00 86 1014.6
20260507154250 10 244 1.6 0.0 0.00 0.00 0.00 85 1014.5
20260507154150 10 25 3.2 0.0 0.00 0.00 0.00 86 1014.6
20260507154050 10 279 3.2 0.0 0.00 0.00 0.00 85 1014.5
20260507153950 10 148 1.6 0.0 0.00 0.00 0.00 85 1014.6
20260507153850 10 209 4.8 0.0 0.00 0.00 0.00 85 1014.5
20260507153750 10 229 3.2 0.0 0.00 0.00 0.00 85 1014.5
20260507153650 10 292 4.8 0.0 0.00 0.00 0.00 85 1014.6
20260507153550 10 226 3.2 0.0 0.00 0.00 0.00 85 1014.4
20260507153450 10 238 1.6 0.0 0.00 0.00 0.00 85 1014.5
20260507153350 10 164 1.6 0.0 0.00 0.00 0.00 85 1014.5
20260507153250 10 242 3.2 0.0 0.00 0.00 0.00 86 1014.5
20260507153150 10 186 3.2 0.0 0.00 0.00 0.00 86 1014.5
20260507153050 10 197 3.2 0.0 0.00 0.00 0.00 86 1014.3
20260507152950 10 239 3.2 0.0 0.00 0.00 0.00 86 1014.4
20260507152849 10 154 1.6 0.0 0.00 0.00 0.00 85 1014.5
20260507152749 10 241 3.2 0.0 0.00 0.00 0.00 85 1014.5
20260507152649 10 228 4.8 0.0 0.00 0.00 0.00 85 1014.4
20260507152549 10 246 8.0 0.0 0.00 0.00 0.00 85 1014.5
20260507152449 10 241 4.8 0.0 0.00 0.00 0.00 86 1014.5
20260507152349 10 317 3.2 0.0 0.00 0.00 0.00 85 1014.4
20260507152249 10 82 4.8 0.0 0.00 0.00 0.00 85 1014.5
20260507152149 10 234 3.2 0.0 0.00 0.00 0.00 85 1014.4
20260507152049 10 26 3.2 0.0 0.00 0.00 0.00 85 1014.4
20260507151949 10 41 3.2 0.0 0.00 0.00 0.00 85 1014.3
20260507151849 10 220 3.2 0.0 0.00 0.00 0.00 85 1014.4
20260507151749 10 42 6.4 0.0 0.00 0.00 0.00 85 1014.4
20260507151649 10 305 4.8 0.0 0.00 0.00 0.00 85 1014.3
20260507151549 10 335 1.6 0.0 0.00 0.00 0.00 86 1014.4
20260507151449 10 252 3.2 0.0 0.00 0.00 0.00 85 1014.3
20260507151349 10 283 3.2 0.0 0.00 0.00 0.00 86 1014.3
20260507151249 10 329 4.8 0.0 0.00 0.00 0.00 86 1014.4
20260507151148 10 169 3.2 0.0 0.00 0.00 0.00 85 1014.3
20260507151049 10 177 4.8 0.0 0.00 0.00 0.00 86 1014.4
20260507150948 10 214 6.4 0.0 0.00 0.00 0.00 86 1014.3
20260507150848 10 194 6.4 0.0 0.00 0.00 0.00 86 1014.1
20260507150748 10 192 3.2 0.0 0.00 0.00 0.00 87 1014.3
20260507150648 10 282 6.4 0.0 0.00 0.00 0.00 87 1014.3
20260507150548 10 236 3.2 0.0 0.00 0.00 0.00 87 1014.3
20260507150448 10 240 3.2 0.0 0.00 0.00 0.00 87 1014.1
20260507150348 10 236 1.6 0.0 0.00 0.00 0.00 88 1014.3
20260507150248 10 57 1.6 0.0 0.00 0.00 0.00 88 1014.3
20260507150148 10 260 1.6 0.0 0.00 0.00 0.00 87 1014.3
20260507150048 10 187 3.2 0.0 0.00 0.00 0.00 87 1014.1
20260507145948 10 136 3.2 0.0 0.00 0.00 0.00 87 1014.3
20260507145848 10 224 1.6 0.0 0.00 0.00 0.00 87 1014.1
20260507145748 10 197 4.8 0.0 0.00 0.00 0.00 87 1014.1
20260507145648 10 261 3.2 0.0 0.00 0.00 0.00 87 1014.3
20260507145547 10 100 1.6 0.0 0.00 0.00 0.00 87 1014.3
20260507145447 10 102 4.8 0.0 0.00 0.00 0.00 87 1014.3
20260507145347 10 258 3.2 0.0 0.00 0.00 0.00 88 1014.3
20260507145247 10 193 1.6 0.0 0.00 0.00 0.00 88 1014.3
20260507145147 10 278 1.6 0.0 0.00 0.00 0.00 88 1014.3
20260507145047 10 346 3.2 0.0 0.00 0.00 0.00 88 1014.3
20260507144947 10 281 3.2 0.0 0.00 0.00 0.00 88 1014.1
20260507144847 10 233 6.4 0.0 0.00 0.00 0.00 88 1014.3
20260507144747 10 264 4.8 0.0 0.00 0.00 0.00 88 1014.4
20260507144647 10 233 3.2 0.0 0.00 0.00 0.00 88 1014.3
20260507144547 10 195 3.2 0.0 0.00 0.00 0.00 88 1014.3
20260507144447 10 341 1.6 0.0 0.00 0.00 0.00 89 1014.3
20260507144347 10 277 3.2 0.0 0.00 0.00 0.00 90 1014.3
20260507144247 10 218 3.2 0.0 0.00 0.00 0.00 90 1014.3
20260507144147 10 193 0.0 0.0 0.00 0.00 0.00 90 1014.3
20260507144047 10 174 1.6 0.0 0.00 0.00 0.00 89 1014.3
20260507143946 10 265 3.2 0.0 0.00 0.00 0.00 90 1014.3
20260507143846 10 201 3.2 0.0 0.00 0.00 0.00 90 1014.1
20260507143746 10 215 0.0 0.0 0.00 0.00 0.00 90 1014.3
20260507143646 10 190 1.6 0.0 0.00 0.00 0.00 90 1014.3
20260507143546 10 214 1.6 0.0 0.00 0.00 0.00 90 1014.3
20260507143446 10 241 3.2 0.0 0.00 0.00 0.00 91 1014.1
20260507143346 10 291 1.6 0.0 0.00 0.00 0.00 90 1014.3
20260507143246 10 214 0.0 0.0 0.00 0.00 0.00 90 1014.3
20260507143146 10 301 1.6 0.0 0.00 0.00 0.00 90 1014.3
20260507143046 10 200 3.2 0.0 0.00 0.00 0.00 90 1014.1
20260507142946 10 212 3.2 0.0 0.00 0.00 0.00 90 1014.1
20260507142846 10 43 3.2 0.0 0.00 0.00 0.00 90 1014.3
20260507142746 10 173 3.2 0.0 0.00 0.00 0.00 89 1014.1
20260507142646 10 241 1.6 0.0 0.00 0.00 0.00 89 1014.1
20260507142546 10 249 3.2 0.0 0.00 0.00 0.00 89 1014.3
20260507142446 10 239 1.6 0.0 0.00 0.00 0.00 89 1014.1
20260507142346 10 16 1.6 0.0 0.00 0.00 0.00 89 1014.1
20260507142245 10 263 3.2 0.0 0.00 0.00 0.00 89 1014.1
20260507142145 10 284 3.2 0.0 0.00 0.00 0.00 89 1014.3
20260507142045 11 293 1.6 0.0 0.00 0.00 0.00 88 1014.1
20260507141945 11 84 1.6 0.0 0.00 0.00 0.00 88 1014.0
20260507141845 11 204 3.2 0.0 0.00 0.00 0.00 87 1014.1
20260507141745 11 175 3.2 0.0 0.00 0.00 0.00 86 1014.0
20260507141645 11 276 4.8 0.0 0.00 0.00 0.00 85 1014.1
20260507141545 11 273 3.2 0.0 0.00 0.00 0.00 84 1014.1
20260507141445 11 178 6.4 0.0 0.00 0.00 0.00 84 1013.9
20260507141345 11 260 1.6 0.0 0.00 0.00 0.00 84 1014.0
20260507141245 11 160 1.6 0.0 0.00 0.00 0.00 83 1013.9
20260507141145 11 208 4.8 0.0 0.00 0.00 0.00 83 1014.0
20260507141045 11 252 6.4 0.0 0.00 0.00 0.00 83 1013.9
20260507140945 11 218 4.8 0.0 0.00 0.00 0.00 84 1013.9
20260507140845 11 72 1.6 0.0 0.00 0.00 0.00 84 1013.9
20260507140745 11 276 1.6 0.0 0.00 0.00 0.00 84 1013.9
20260507140644 11 112 1.6 0.0 0.00 0.00 0.00 83 1013.9
20260507140544 11 273 3.2 0.0 0.00 0.00 0.00 83 1013.9
20260507140444 11 224 1.6 0.0 0.00 0.00 0.00 83 1013.9
20260507140344 11 274 4.8 0.0 0.00 0.00 0.00 83 1014.0
20260507140244 11 243 3.2 0.0 0.00 0.00 0.00 83 1013.9
20260507140144 11 216 6.4 0.0 0.00 0.00 0.00 83 1013.9
20260507140044 11 231 3.2 0.0 0.00 0.00 0.00 83 1014.0
20260507135944 11 228 3.2 0.0 0.00 0.00 0.00 83 1014.0
20260507135844 11 212 1.6 0.0 0.00 0.00 0.00 83 1013.9
20260507135744 11 101 3.2 0.0 0.00 0.00 0.00 84 1013.9
20260507135644 11 326 3.2 0.0 0.00 0.00 0.00 84 1014.0
20260507135544 11 15 1.6 0.0 0.00 0.00 0.00 84 1013.9
20260507135444 11 43 0.0 0.0 0.00 0.00 0.00 83 1013.9
20260507135344 11 184 1.6 0.0 0.00 0.00 0.00 83 1014.0
20260507135244 11 285 1.6 0.0 0.00 0.00 0.00 83 1014.0
20260507135144 11 247 1.6 0.0 0.00 0.00 0.00 83 1013.9
20260507135044 11 186 0.0 0.0 0.00 0.00 0.00 83 1014.0
20260507134943 11 152 1.6 0.0 0.00 0.00 0.00 84 1013.9
20260507134843 11 252 3.2 0.0 0.00 0.00 0.00 84 1013.9
20260507134743 11 288 1.6 0.0 0.00 0.00 0.00 84 1013.8
20260507134643 11 224 0.0 0.0 0.00 0.00 0.00 84 1014.0
20260507134543 11 235 1.6 0.0 0.00 0.00 0.00 84 1013.9
20260507134443 11 280 1.6 0.0 0.00 0.00 0.00 84 1013.9
20260507134343 11 104 1.6 0.0 0.00 0.00 0.00 84 1014.0
20260507134243 11 269 0.0 0.0 0.00 0.00 0.00 84 1013.9
20260507134143 11 275 1.6 0.0 0.00 0.00 0.00 84 1013.9
20260507134043 11 221 1.6 0.0 0.00 0.00 0.00 84 1013.9
20260507133943 11 201 3.2 0.0 0.00 0.00 0.00 84 1013.9
20260507133843 11 191 3.2 0.0 0.00 0.00 0.00 83 1013.9
20260507133743 11 302 1.6 0.0 0.00 0.00 0.00 83 1013.9
20260507133643 11 303 1.6 0.0 0.00 0.00 0.00 85 1014.0
20260507133543 11 219 3.2 0.0 0.00 0.00 0.00 85 1013.9
20260507133443 11 304 0.0 0.0 0.00 0.00 0.00 85 1013.9
20260507133342 11 139 1.6 0.0 0.00 0.00 0.00 85 1014.0
20260507133242 11 300 0.0 0.0 0.00 0.00 0.00 85 1013.9
20260507133142 11 91 1.6 0.0 0.00 0.00 0.00 85 1013.9
20260507133042 11 22 3.2 0.0 0.00 0.00 0.00 86 1014.0
20260507132942 10 17 4.8 0.0 0.00 0.00 0.00 86 1013.9
20260507132842 10 242 1.6 0.0 0.00 0.00 0.00 85 1013.9
20260507132742 10 329 0.0 0.0 0.00 0.00 0.00 85 1014.0
20260507132642 11 239 3.2 0.0 0.00 0.00 0.00 85 1013.9
20260507132542 11 224 3.2 0.0 0.00 0.00 0.00 86 1014.0
20260507132442 11 224 3.2 0.0 0.00 0.00 0.00 86 1013.9
20260507132342 11 228 1.6 0.0 0.00 0.00 0.00 86 1013.9
20260507132242 11 141 1.6 0.0 0.00 0.00 0.00 85 1013.8
20260507132142 11 275 4.8 0.0 0.00 0.00 0.00 86 1013.8
20260507132042 11 281 3.2 0.0 0.00 0.00 0.00 86 1013.9
20260507131942 11 193 1.6 0.0 0.00 0.00 0.00 86 1013.8
20260507131842 11 203 3.2 0.0 0.00 0.00 0.00 86 1013.9
20260507131741 11 186 1.6 0.0 0.00 0.00 0.00 85 1014.0
20260507131643 11 283 1.6 0.0 0.00 0.00 0.00 85 1013.9
20260507131541 11 218 3.2 0.0 0.00 0.00 0.00 86 1013.9
20260507131441 11 229 4.8 0.0 0.00 0.00 0.00 86 1013.8
20260507131341 11 280 1.6 0.0 0.00 0.00 0.00 86 1013.8
20260507131241 11 259 3.2 0.0 0.00 0.00 0.00 87 1013.8
20260507131141 11 330 1.6 0.0 0.00 0.00 0.00 87 1013.9
20260507131041 10 228 1.6 0.0 0.00 0.00 0.00 87 1013.8
20260507130941 10 220 3.2 0.0 0.00 0.00 0.00 87 1013.7
20260507130841 10 219 1.6 0.0 0.00 0.00 0.00 87 1013.8
20260507130741 11 212 3.2 0.0 0.00 0.00 0.00 87 1013.9
20260507130641 11 239 3.2 0.0 0.00 0.00 0.00 88 1013.8
20260507130541 10 206 3.2 0.0 0.00 0.00 0.00 87 1013.9
20260507130441 10 224 1.6 0.0 0.00 0.00 0.00 87 1013.8
20260507130341 10 349 1.6 0.0 0.00 0.00 0.00 88 1013.7
20260507130241 10 217 1.6 0.0 0.00 0.00 0.00 88 1013.7
20260507130140 10 261 3.2 0.0 0.00 0.00 0.00 88 1013.8
20260507130040 10 218 1.6 0.0 0.00 0.00 0.00 88 1013.6
20260507125940 10 269 4.8 0.0 0.00 0.00 0.00 89 1013.7
20260507125840 10 299 1.6 0.0 0.00 0.00 0.00 89 1013.6
20260507125740 10 238 1.6 0.0 0.00 0.00 0.00 89 1013.7
20260507125640 10 141 1.6 0.0 0.00 0.00 0.00 89 1013.6
20260507125540 10 288 3.2 0.0 0.00 0.00 0.00 89 1013.6
20260507125440 10 28 3.2 0.0 0.00 0.00 0.00 90 1013.7
20260507125340 10 258 1.6 0.0 0.00 0.00 0.00 90 1013.7
20260507125240 10 154 0.0 0.0 0.00 0.00 0.00 89 1013.6
20260507125140 10 265 3.2 0.0 0.00 0.00 0.00 89 1013.6
20260507125040 10 254 1.6 0.0 0.00 0.00 0.00 89 1013.6
20260507124940 10 0 0.0 0.0 0.00 0.00 0.00 90 1013.7
20260507124840 10 14 1.6 0.0 0.00 0.00 0.00 90 1013.6
20260507124740 10 37 1.6 0.0 0.00 0.00 0.00 89 1013.7
20260507124640 10 201 0.0 0.0 0.00 0.00 0.00 89 1013.6
20260507124540 10 312 1.6 0.0 0.00 0.00 0.00 89 1013.6
20260507124439 10 254 1.6 0.0 0.00 0.00 0.00 89 1013.7
20260507124339 10 218 0.0 0.0 0.00 0.00 0.00 89 1013.5
20260507124239 10 275 1.6 0.0 0.00 0.00 0.00 89 1013.6
20260507124139 10 53 1.6 0.0 0.00 0.00 0.00 89 1013.5
20260507124039 10 46 1.6 0.0 0.00 0.00 0.00 89 1013.6
20260507123939 10 141 0.0 0.0 0.00 0.00 0.00 89 1013.6
20260507123839 10 76 1.6 0.0 0.00 0.00 0.00 89 1013.6
20260507123739 10 41 0.0 0.0 0.00 0.00 0.00 89 1013.5
20260507123639 10 0 1.6 0.0 0.00 0.00 0.00 89 1013.5
20260507123539 10 32 0.0 0.0 0.00 0.00 0.00 89 1013.5
20260507123439 10 6 1.6 0.0 0.00 0.00 0.00 89 1013.4
20260507123339 10 38 1.6 0.0 0.00 0.00 0.00 88 1013.5
20260507123239 10 98 3.2 0.0 0.00 0.00 0.00 88 1013.5
20260507123139 10 132 1.6 0.0 0.00 0.00 0.00 87 1013.5
20260507123039 10 294 0.0 0.0 0.00 0.00 0.00 87 1013.6
20260507122939 10 164 3.2 0.0 0.00 0.00 0.00 86 1013.5
20260507122838 10 140 1.6 0.0 0.00 0.00 0.00 86 1013.5
20260507122738 11 358 3.2 0.0 0.00 0.00 0.00 86 1013.4
20260507122638 11 106 0.0 0.0 0.00 0.00 0.00 86 1013.4
20260507122538 11 189 0.0 0.0 0.00 0.00 0.00 86 1013.3
20260507122438 11 184 3.2 0.0 0.00 0.00 0.00 86 1013.3
20260507122338 11 54 1.6 0.0 0.00 0.00 0.00 86 1013.5
20260507122238 11 42 1.6 0.0 0.00 0.00 0.00 86 1013.3
20260507122138 11 211 0.0 0.0 0.00 0.00 0.00 87 1013.3
20260507122038 11 188 1.6 0.0 0.00 0.00 0.00 87 1013.5
20260507121938 11 38 0.0 0.0 0.00 0.00 0.00 87 1013.4
20260507121838 10 35 0.0 0.0 0.00 0.00 0.00 87 1013.4
20260507121738 10 62 1.6 0.0 0.00 0.00 0.00 87 1013.4
20260507121638 10 185 0.0 0.0 0.00 0.00 0.00 87 1013.4
20260507121538 10 50 1.6 0.0 0.00 0.00 0.00 87 1013.3
20260507121438 10 122 0.0 0.0 0.00 0.00 0.00 87 1013.4
20260507121338 10 27 0.0 0.0 0.00 0.00 0.00 87 1013.3
20260507121238 10 124 0.0 0.0 0.00 0.00 0.00 87 1013.3
20260507121137 10 42 1.6 0.0 0.00 0.00 0.00 87 1013.4
20260507121037 10 224 0.0 0.0 0.00 0.00 0.00 88 1013.4
20260507120937 10 222 3.2 0.0 0.00 0.00 0.00 89 1013.3
20260507120837 10 180 0.0 0.0 0.00 0.00 0.00 88 1013.2
20260507120737 10 293 1.6 0.0 0.00 0.00 0.00 89 1013.3
20260507120637 10 299 0.0 0.0 0.00 0.00 0.00 89 1013.2
20260507120537 10 335 1.6 0.0 0.00 0.00 0.00 89 1013.3
20260507120437 10 184 0.0 0.0 0.00 0.00 0.00 89 1013.3
20260507120337 10 323 1.6 0.0 0.00 0.00 0.00 89 1013.3
20260507120237 10 322 0.0 0.0 0.00 0.00 0.00 89 1013.3
20260507120137 10 322 0.0 0.0 0.00 0.00 0.00 90 1013.4
20260507120037 10 44 1.6 0.0 0.00 0.00 0.00 91 1013.3
20260507115937 10 135 1.6 0.0 0.00 0.00 0.00 91 1013.2
20260507115837 10 11 1.6 0.0 0.00 0.00 0.00 91 1013.4
20260507115737 10 63 0.0 0.0 0.00 0.00 0.00 91 1013.3
20260507115637 10 24 0.0 0.0 0.00 0.00 0.00 91 1013.3
20260507115536 10 25 0.0 0.0 0.00 0.00 0.00 91 1013.2
20260507115436 10 112 1.6 0.0 0.00 0.00 0.00 91 1013.3
20260507115336 10 246 1.6 0.0 0.00 0.00 0.00 91 1013.3
20260507115236 10 70 1.6 0.0 0.00 0.00 0.00 91 1013.2
20260507115136 10 103 1.6 0.0 0.00 0.00 0.00 90 1013.3
20260507115036 10 235 1.6 0.0 0.00 0.00 0.00 90 1013.2
20260507114936 10 129 0.0 0.0 0.00 0.00 0.00 90 1013.2
20260507114836 10 283 1.6 0.0 0.00 0.00 0.00 90 1013.3
20260507114736 10 6 0.0 0.0 0.00 0.00 0.00 90 1013.3
20260507114636 10 338 1.6 0.0 0.00 0.00 0.00 90 1013.3
20260507114536 10 334 3.2 0.0 0.00 0.00 0.00 91 1013.2
20260507114436 10 53 0.0 0.0 0.00 0.00 0.00 90 1013.3
20260507114336 10 235 0.0 0.0 0.00 0.00 0.00 90 1013.2
20260507114236 10 162 0.0 0.0 0.00 0.00 0.00 90 1013.2
20260507114136 10 315 0.0 0.0 0.00 0.00 0.00 90 1013.3
20260507114036 10 135 0.0 0.0 0.00 0.00 0.00 91 1013.3
20260507113936 10 101 1.6 0.0 0.00 0.00 0.00 90 1013.2
20260507113835 10 219 1.6 0.0 0.00 0.00 0.00 90 1013.1
20260507113735 10 48 1.6 0.0 0.00 0.00 0.00 90 1013.2
20260507113635 10 130 1.6 0.0 0.00 0.00 0.00 89 1013.1
20260507113536 10 22 1.6 0.0 0.00 0.00 0.00 89 1013.2
20260507113435 10 254 4.8 0.0 0.00 0.00 0.00 88 1013.2
20260507113335 10 263 1.6 0.0 0.00 0.00 0.00 88 1013.2
20260507113235 10 222 3.2 0.0 0.00 0.00 0.00 88 1013.2
20260507113135 10 222 1.6 0.0 0.00 0.00 0.00 88 1013.2
20260507113035 10 243 1.6 0.0 0.00 0.00 0.00 88 1013.2
20260507112935 10 265 3.2 0.0 0.00 0.00 0.00 88 1013.2
20260507112835 10 217 1.6 0.0 0.00 0.00 0.00 88 1013.2
20260507112735 10 221 1.6 0.0 0.00 0.00 0.00 89 1013.2
20260507112635 10 304 1.6 0.0 0.00 0.00 0.00 89 1013.2
20260507112535 10 315 3.2 0.0 0.00 0.00 0.00 89 1013.2
20260507112435 10 229 3.2 0.0 0.00 0.00 0.00 89 1013.2
20260507112335 10 218 0.0 0.0 0.00 0.00 0.00 89 1013.2
20260507112234 10 243 0.0 0.0 0.00 0.00 0.00 89 1013.2
20260507112134 10 191 0.0 0.0 0.00 0.00 0.00 89 1013.2
20260507112034 10 117 0.0 0.0 0.00 0.00 0.00 89 1013.2
20260507111934 10 57 1.6 0.0 0.00 0.00 0.00 89 1013.1
20260507111835 10 131 1.6 0.0 0.00 0.00 0.00 89 1013.1
20260507111735 10 208 1.6 0.0 0.00 0.00 0.00 89 1013.1
20260507111634 10 154 0.0 0.0 0.00 0.00 0.00 88 1013.1
20260507111534 10 89 0.0 0.0 0.00 0.00 0.00 89 1013.0
20260507111434 10 50 0.0 0.0 0.00 0.00 0.00 89 1013.1
20260507111334 10 302 1.6 0.0 0.00 0.00 0.00 89 1013.1
20260507111234 10 212 1.6 0.0 0.00 0.00 0.00 89 1013.1
20260507111134 10 229 3.2 0.0 0.00 0.00 0.00 89 1013.0
20260507111034 10 117 0.0 0.0 0.00 0.00 0.00 89 1013.1
20260507110934 10 113 0.0 0.0 0.00 0.00 0.00 89 1013.0
20260507110834 10 67 0.0 0.0 0.00 0.00 0.00 89 1013.1
20260507110734 10 100 1.6 0.0 0.00 0.00 0.00 89 1013.2
20260507110634 10 304 0.0 0.0 0.00 0.00 0.00 89 1013.1
20260507110533 10 66 0.0 0.0 0.00 0.00 0.00 89 1013.1
20260507110433 10 322 0.0 0.0 0.00 0.00 0.00 89 1013.1
20260507110333 10 322 0.0 0.0 0.00 0.00 0.00 90 1013.1
20260507110233 10 17 1.6 0.0 0.00 0.00 0.00 90 1013.1
20260507110133 10 80 1.6 0.0 0.00 0.00 0.00 89 1013.1
20260507110033 10 54 1.6 0.0 0.00 0.00 0.00 89 1013.0
20260507105933 10 186 1.6 0.0 0.00 0.00 0.00 89 1013.0
20260507105833 10 292 1.6 0.0 0.00 0.00 0.00 89 1013.1
20260507105733 10 218 1.6 0.0 0.00 0.00 0.00 89 1013.0
20260507105633 10 242 0.0 0.0 0.00 0.00 0.00 89 1013.0
20260507105533 10 242 0.0 0.0 0.00 0.00 0.00 88 1013.0
20260507105433 10 242 0.0 0.0 0.00 0.00 0.00 88 1013.0
20260507105333 10 31 0.0 0.0 0.00 0.00 0.00 88 1013.1
20260507105233 10 151 0.0 0.0 0.00 0.00 0.00 89 1013.1
20260507105133 10 69 0.0 0.0 0.00 0.00 0.00 89 1013.0
20260507105033 10 79 1.6 0.0 0.00 0.00 0.00 89 1013.1
20260507104933 10 11 0.0 0.0 0.00 0.00 0.00 89 1013.0
20260507104832 10 295 1.6 0.0 0.00 0.00 0.00 89 1013.1
20260507104732 10 13 1.6 0.0 0.00 0.00 0.00 89 1013.0
20260507104632 10 322 0.0 0.0 0.00 0.00 0.00 89 1013.0
20260507104532 10 260 0.0 0.0 0.00 0.00 0.00 89 1013.0
20260507104432 10 230 0.0 0.0 0.00 0.00 0.00 89 1012.9
20260507104332 10 278 0.0 0.0 0.00 0.00 0.00 90 1013.0
20260507104232 10 290 0.0 0.0 0.00 0.00 0.00 90 1012.9
20260507104132 10 304 0.0 0.0 0.00 0.00 0.00 89 1013.0
20260507104032 10 200 1.6 0.0 0.00 0.00 0.00 89 1012.9
20260507103932 10 77 0.0 4.8 0.00 0.00 0.00 89 1013.0
20260507103832 10 143 1.6 0.0 0.00 0.00 0.00 89 1012.9
20260507103732 10 150 0.0 0.0 0.00 0.00 0.00 89 1012.9
20260507103632 10 45 1.6 0.0 0.00 0.00 0.00 89 1013.0
20260507103532 10 81 1.6 0.0 0.00 0.00 0.00 89 1012.9
20260507103432 10 107 1.6 0.0 0.00 0.00 0.00 89 1012.9
20260507103332 10 217 0.0 0.0 0.00 0.00 0.00 89 1013.0
20260507103232 10 35 3.2 0.0 0.00 0.00 0.00 89 1012.9
20260507103131 10 89 1.6 0.0 0.00 0.00 0.00 89 1012.9
20260507103031 10 0 1.6 0.0 0.00 0.00 0.00 89 1012.9